Wetterdaten: Sonntag, 13.03.2022
Datum Zeit Temp. Aussen Temp. o. S. Temp +5cm Feuchte Auss Luftdruck Regen Sonnenschein Regendauer Solar Windben Empfang
13.03.2022 00:00 8,9 C 8,3 C 4,4 C 70 % 1016,8 hPa 0,0 l/m 0 min 0 min 0 W/m 16,1 km/h (3 Bft) 97,87 %
13.03.2022 00:02 8,9 C 8,3 C 5,0 C 70 % 1016,8 hPa 0,0 l/m 0 min 0 min 0 W/m 19,3 km/h (3 Bft) 94,44 %
13.03.2022 00:04 8,9 C 8,3 C 5,0 C 71 % 1016,8 hPa 0,0 l/m 0 min 0 min 0 W/m 12,9 km/h (3 Bft) 97,87 %
13.03.2022 00:08 9,0 C 8,3 C 5,0 C 70 % 1016,8 hPa 0,0 l/m 0 min 0 min 0 W/m 16,1 km/h (3 Bft) 97,87 %
13.03.2022 00:10 9,0 C 8,3 C 5,0 C 70 % 1016,8 hPa 0,0 l/m 0 min 0 min 0 W/m 12,9 km/h (3 Bft) 97,87 %
13.03.2022 00:12 9,1 C 8,3 C 5,0 C 70 % 1016,7 hPa 0,0 l/m 0 min 0 min 0 W/m 6,4 km/h (2 Bft) 78,72 %
13.03.2022 00:14 9,1 C 8,3 C 5,0 C 70 % 1016,8 hPa 0,0 l/m 0 min 0 min 0 W/m 16,1 km/h (3 Bft) 70,00 %
13.03.2022 00:16 9,1 C 8,3 C 5,0 C 70 % 1016,7 hPa 0,0 l/m 0 min 0 min 0 W/m 9,7 km/h (2 Bft) 97,87 %
13.03.2022 00:18 9,1 C 8,3 C 5,0 C 70 % 1016,8 hPa 0,0 l/m 0 min 0 min 0 W/m 6,4 km/h (2 Bft) 97,87 %
13.03.2022 00:20 9,1 C 8,3 C 5,0 C 70 % 1016,8 hPa 0,0 l/m 0 min 0 min 0 W/m 3,2 km/h (1 Bft) 95,74 %
13.03.2022 00:22 9,1 C 8,3 C 5,0 C 69 % 1016,7 hPa 0,0 l/m 0 min 0 min 0 W/m 16,1 km/h (3 Bft) 95,74 %
13.03.2022 00:24 9,1 C 8,3 C 5,0 C 69 % 1016,7 hPa 0,0 l/m 0 min 0 min 0 W/m 12,9 km/h (3 Bft) 97,87 %
13.03.2022 00:26 9,2 C 8,3 C 5,0 C 69 % 1016,7 hPa 0,0 l/m 0 min 0 min 0 W/m 16,1 km/h (3 Bft) 97,83 %
13.03.2022 00:28 9,2 C 8,3 C 5,0 C 69 % 1016,7 hPa 0,0 l/m 0 min 0 min 0 W/m 6,4 km/h (2 Bft) 97,87 %
13.03.2022 00:30 9,2 C 8,3 C 5,0 C 69 % 1016,7 hPa 0,0 l/m 0 min 0 min 0 W/m 12,9 km/h (3 Bft) 93,62 %
13.03.2022 00:32 9,2 C 8,3 C 5,0 C 69 % 1016,7 hPa 0,0 l/m 0 min 0 min 0 W/m 9,7 km/h (2 Bft) 97,87 %
13.03.2022 00:34 9,2 C 8,3 C 5,0 C 69 % 1016,7 hPa 0,0 l/m 0 min 0 min 0 W/m 12,9 km/h (3 Bft) 97,87 %
13.03.2022 00:36 9,2 C 8,3 C 5,0 C 69 % 1016,7 hPa 0,0 l/m 0 min 0 min 0 W/m 12,9 km/h (3 Bft) 97,87 %
13.03.2022 00:38 9,3 C 8,3 C 5,0 C 69 % 1016,7 hPa 0,0 l/m 0 min 0 min 0 W/m 12,9 km/h (3 Bft) 97,83 %
13.03.2022 00:40 9,3 C 8,9 C 5,0 C 69 % 1016,8 hPa 0,0 l/m 0 min 0 min 0 W/m 16,1 km/h (3 Bft) 97,87 %
13.03.2022 00:42 9,3 C 8,9 C 5,0 C 69 % 1016,8 hPa 0,0 l/m 0 min 0 min 0 W/m 12,9 km/h (3 Bft) 97,87 %
13.03.2022 00:44 9,3 C 8,9 C 5,0 C 69 % 1016,8 hPa 0,0 l/m 0 min 0 min 0 W/m 12,9 km/h (3 Bft) 100,00 %
13.03.2022 00:46 9,3 C 8,9 C 5,0 C 69 % 1016,8 hPa 0,0 l/m 0 min 0 min 0 W/m 16,1 km/h (3 Bft) 100,00 %
13.03.2022 00:48 9,3 C 8,9 C 5,0 C 69 % 1016,7 hPa 0,0 l/m 0 min 0 min 0 W/m 12,9 km/h (3 Bft) 100,00 %
13.03.2022 00:50 9,3 C 8,9 C 5,0 C 69 % 1016,7 hPa 0,0 l/m 0 min 0 min 0 W/m 16,1 km/h (3 Bft) 97,83 %
13.03.2022 00:52 9,3 C 8,9 C 5,0 C 69 % 1016,7 hPa 0,0 l/m 0 min 0 min 0 W/m 16,1 km/h (3 Bft) 100,00 %
13.03.2022 00:54 9,3 C 8,3 C 5,0 C 69 % 1016,7 hPa 0,0 l/m 0 min 0 min 0 W/m 16,1 km/h (3 Bft) 100,00 %
13.03.2022 00:56 9,3 C 8,3 C 5,0 C 69 % 1016,7 hPa 0,0 l/m 0 min 0 min 0 W/m 12,9 km/h (3 Bft) 100,00 %
13.03.2022 00:58 9,3 C 8,3 C 5,0 C 69 % 1016,7 hPa 0,0 l/m 0 min 0 min 0 W/m 6,4 km/h (2 Bft) 100,00 %
13.03.2022 01:00 9,3 C 8,3 C 5,0 C 69 % 1016,7 hPa 0,0 l/m 0 min 0 min 0 W/m 12,9 km/h (3 Bft) 97,87 %
13.03.2022 01:02 9,3 C 8,3 C 5,0 C 69 % 1016,7 hPa 0,0 l/m 0 min 0 min 0 W/m 16,1 km/h (3 Bft) 97,83 %
13.03.2022 01:04 9,3 C 8,3 C 5,0 C 69 % 1016,8 hPa 0,0 l/m 0 min 0 min 0 W/m 16,1 km/h (3 Bft) 97,87 %
13.03.2022 01:06 9,3 C 8,3 C 5,0 C 69 % 1016,8 hPa 0,0 l/m 0 min 0 min 0 W/m 9,7 km/h (2 Bft) 95,74 %
13.03.2022 01:08 9,3 C 8,3 C 5,0 C 69 % 1016,8 hPa 0,0 l/m 0 min 0 min 0 W/m 6,4 km/h (2 Bft) 97,87 %
13.03.2022 01:10 9,3 C 8,3 C 5,0 C 69 % 1016,8 hPa 0,0 l/m 0 min 0 min 0 W/m 6,4 km/h (2 Bft) 97,87 %
13.03.2022 01:12 9,3 C 8,3 C 5,0 C 69 % 1016,8 hPa 0,0 l/m 0 min 0 min 0 W/m 12,9 km/h (3 Bft) 97,83 %
13.03.2022 01:14 9,3 C 8,3 C 5,0 C 69 % 1016,8 hPa 0,0 l/m 0 min 0 min 0 W/m 6,4 km/h (2 Bft) 97,87 %
13.03.2022 01:16 9,3 C 8,3 C 5,0 C 69 % 1016,8 hPa 0,0 l/m 0 min 0 min 0 W/m 6,4 km/h (2 Bft) 97,87 %
13.03.2022 01:18 9,3 C 8,3 C 5,0 C 69 % 1016,8 hPa 0,0 l/m 0 min 0 min 0 W/m 12,9 km/h (3 Bft) 97,87 %
13.03.2022 01:20 9,2 C 8,3 C 5,0 C 69 % 1016,8 hPa 0,0 l/m 0 min 0 min 0 W/m 6,4 km/h (2 Bft) 97,87 %
13.03.2022 01:22 9,2 C 8,3 C 4,4 C 69 % 1016,7 hPa 0,0 l/m 0 min 0 min 0 W/m 12,9 km/h (3 Bft) 93,62 %
13.03.2022 01:24 9,2 C 8,3 C 4,4 C 69 % 1016,7 hPa 0,0 l/m 0 min 0 min 0 W/m 12,9 km/h (3 Bft) 97,83 %
13.03.2022 01:26 9,2 C 8,3 C 4,4 C 69 % 1016,7 hPa 0,0 l/m 0 min 0 min 0 W/m 9,7 km/h (2 Bft) 97,87 %
13.03.2022 01:28 9,2 C 8,3 C 4,4 C 69 % 1016,7 hPa 0,0 l/m 0 min 0 min 0 W/m 12,9 km/h (3 Bft) 95,74 %
13.03.2022 01:30 9,2 C 8,3 C 4,4 C 69 % 1016,7 hPa 0,0 l/m 0 min 0 min 0 W/m 12,9 km/h (3 Bft) 97,87 %
13.03.2022 01:32 9,1 C 8,3 C 4,4 C 69 % 1016,7 hPa 0,0 l/m 0 min 0 min 0 W/m 12,9 km/h (3 Bft) 100,00 %
13.03.2022 01:34 9,1 C 8,3 C 4,4 C 69 % 1016,7 hPa 0,0 l/m 0 min 0 min 0 W/m 12,9 km/h (3 Bft) 100,00 %
13.03.2022 01:36 9,1 C 7,8 C 4,4 C 69 % 1016,6 hPa 0,0 l/m 0 min 0 min 0 W/m 6,4 km/h (2 Bft) 97,83 %
13.03.2022 01:38 9,1 C 7,8 C 4,4 C 70 % 1016,6 hPa 0,0 l/m 0 min 0 min 0 W/m 6,4 km/h (2 Bft) 95,74 %
13.03.2022 01:40 9,0 C 7,8 C 4,4 C 70 % 1016,5 hPa 0,0 l/m 0 min 0 min 0 W/m 6,4 km/h (2 Bft) 97,87 %
13.03.2022 01:42 8,9 C 7,8 C 4,4 C 70 % 1016,5 hPa 0,0 l/m 0 min 0 min 0 W/m 6,4 km/h (2 Bft) 97,87 %
13.03.2022 01:44 8,9 C 7,8 C 4,4 C 70 % 1016,4 hPa 0,0 l/m 0 min 0 min 0 W/m 12,9 km/h (3 Bft) 97,87 %
13.03.2022 01:46 8,9 C 7,8 C 4,4 C 70 % 1016,4 hPa 0,0 l/m 0 min 0 min 0 W/m 19,3 km/h (3 Bft) 97,87 %
13.03.2022 01:48 8,8 C 7,8 C 4,4 C 70 % 1016,3 hPa 0,0 l/m 0 min 0 min 0 W/m 12,9 km/h (3 Bft) 97,83 %
13.03.2022 01:50 8,8 C 7,8 C 3,9 C 71 % 1016,3 hPa 0,0 l/m 0 min 0 min 0 W/m 12,9 km/h (3 Bft) 97,87 %
13.03.2022 01:52 8,7 C 7,8 C 3,9 C 71 % 1016,3 hPa 0,0 l/m 0 min 0 min 0 W/m 12,9 km/h (3 Bft) 97,87 %
13.03.2022 01:54 8,7 C 7,8 C 3,9 C 71 % 1016,2 hPa 0,0 l/m 0 min 0 min 0 W/m 6,4 km/h (2 Bft) 97,87 %
13.03.2022 01:56 8,7 C 7,8 C 3,9 C 71 % 1016,3 hPa 0,0 l/m 0 min 0 min 0 W/m 16,1 km/h (3 Bft) 97,87 %
13.03.2022 01:58 8,6 C 7,8 C 3,9 C 71 % 1016,3 hPa 0,0 l/m 0 min 0 min 0 W/m 6,4 km/h (2 Bft) 95,74 %
13.03.2022 02:00 8,6 C 7,8 C 3,9 C 71 % 1016,3 hPa 0,0 l/m 0 min 0 min 0 W/m 6,4 km/h (2 Bft) 97,83 %
13.03.2022 02:02 8,6 C 7,8 C 3,9 C 71 % 1016,2 hPa 0,0 l/m 0 min 0 min 0 W/m 12,9 km/h (3 Bft) 97,87 %
13.03.2022 02:04 8,6 C 7,8 C 3,9 C 71 % 1016,2 hPa 0,0 l/m 0 min 0 min 0 W/m 12,9 km/h (3 Bft) 93,62 %
13.03.2022 02:06 8,6 C 7,8 C 3,9 C 71 % 1016,1 hPa 0,0 l/m 0 min 0 min 0 W/m 12,9 km/h (3 Bft) 97,87 %
13.03.2022 02:08 8,5 C 7,8 C 3,9 C 71 % 1016,1 hPa 0,0 l/m 0 min 0 min 0 W/m 6,4 km/h (2 Bft) 97,87 %
13.03.2022 02:10 8,5 C 7,8 C 3,9 C 71 % 1016,1 hPa 0,0 l/m 0 min 0 min 0 W/m 16,1 km/h (3 Bft) 97,87 %
13.03.2022 02:12 8,4 C 7,8 C 3,9 C 71 % 1016,1 hPa 0,0 l/m 0 min 0 min 0 W/m 16,1 km/h (3 Bft) 97,83 %
13.03.2022 02:14 8,4 C 7,8 C 3,9 C 71 % 1016,1 hPa 0,0 l/m 0 min 0 min 0 W/m 6,4 km/h (2 Bft) 97,87 %
13.03.2022 02:16 8,4 C 7,8 C 3,9 C 71 % 1016,1 hPa 0,0 l/m 0 min 0 min 0 W/m 12,9 km/h (3 Bft) 97,87 %
13.03.2022 02:18 8,4 C 7,8 C 3,9 C 71 % 1016,1 hPa 0,0 l/m 0 min 0 min 0 W/m 6,4 km/h (2 Bft) 97,87 %
13.03.2022 02:20 8,4 C 7,8 C 3,9 C 71 % 1016,1 hPa 0,0 l/m 0 min 0 min 0 W/m 12,9 km/h (3 Bft) 100,00 %
13.03.2022 02:22 8,4 C 7,8 C 3,9 C 71 % 1016,1 hPa 0,0 l/m 0 min 0 min 0 W/m 12,9 km/h (3 Bft) 100,00 %
13.03.2022 02:24 8,4 C 7,8 C 3,9 C 71 % 1016,0 hPa 0,0 l/m 0 min 0 min 0 W/m 12,9 km/h (3 Bft) 97,83 %
13.03.2022 02:26 8,4 C 7,8 C 3,9 C 71 % 1016,0 hPa 0,0 l/m 0 min 0 min 0 W/m 6,4 km/h (2 Bft) 100,00 %
13.03.2022 02:28 8,4 C 7,8 C 3,9 C 71 % 1016,0 hPa 0,0 l/m 0 min 0 min 0 W/m 12,9 km/h (3 Bft) 100,00 %
13.03.2022 02:30 8,4 C 7,8 C 3,9 C 71 % 1016,0 hPa 0,0 l/m 0 min 0 min 0 W/m 12,9 km/h (3 Bft) 100,00 %
13.03.2022 02:32 8,3 C 7,8 C 3,9 C 71 % 1016,0 hPa 0,0 l/m 0 min 0 min 0 W/m 12,9 km/h (3 Bft) 100,00 %
13.03.2022 02:34 8,3 C 7,8 C 3,9 C 71 % 1016,0 hPa 0,0 l/m 0 min 0 min 0 W/m 12,9 km/h (3 Bft) 100,00 %
13.03.2022 02:36 8,3 C 7,2 C 3,9 C 71 % 1016,0 hPa 0,0 l/m 0 min 0 min 0 W/m 12,9 km/h (3 Bft) 100,00 %
13.03.2022 02:38 8,3 C 7,2 C 3,9 C 71 % 1015,9 hPa 0,0 l/m 0 min 0 min 0 W/m 6,4 km/h (2 Bft) 100,00 %
13.03.2022 02:40 8,3 C 7,2 C 3,9 C 71 % 1016,0 hPa 0,0 l/m 0 min 0 min 0 W/m 6,4 km/h (2 Bft) 100,00 %
13.03.2022 02:42 8,3 C 7,2 C 3,9 C 71 % 1015,9 hPa 0,0 l/m 0 min 0 min 0 W/m 6,4 km/h (2 Bft) 97,87 %
13.03.2022 02:44 8,3 C 7,2 C 3,9 C 71 % 1015,9 hPa 0,0 l/m 0 min 0 min 0 W/m 12,9 km/h (3 Bft) 97,87 %
13.03.2022 02:46 8,3 C 7,2 C 3,9 C 70 % 1015,9 hPa 0,0 l/m 0 min 0 min 0 W/m 16,1 km/h (3 Bft) 100,00 %
13.03.2022 02:48 8,3 C 7,2 C 3,9 C 70 % 1015,8 hPa 0,0 l/m 0 min 0 min 0 W/m 6,4 km/h (2 Bft) 100,00 %
13.03.2022 02:50 8,2 C 7,2 C 3,9 C 70 % 1015,8 hPa 0,0 l/m 0 min 0 min 0 W/m 9,7 km/h (2 Bft) 95,74 %
13.03.2022 02:52 8,2 C 7,2 C 3,9 C 70 % 1015,8 hPa 0,0 l/m 0 min 0 min 0 W/m 6,4 km/h (2 Bft) 95,74 %
13.03.2022 02:54 8,2 C 7,2 C 3,9 C 70 % 1015,7 hPa 0,0 l/m 0 min 0 min 0 W/m 12,9 km/h (3 Bft) 95,74 %
13.03.2022 02:56 8,2 C 7,2 C 3,9 C 70 % 1015,7 hPa 0,0 l/m 0 min 0 min 0 W/m 12,9 km/h (3 Bft) 95,74 %
13.03.2022 02:58 8,2 C 7,2 C 3,9 C 70 % 1015,7 hPa 0,0 l/m 0 min 0 min 0 W/m 16,1 km/h (3 Bft) 95,74 %
13.03.2022 03:00 8,2 C 7,2 C 3,9 C 70 % 1015,7 hPa 0,0 l/m 0 min 0 min 0 W/m 9,7 km/h (2 Bft) 95,65 %
13.03.2022 03:02 8,1 C 7,2 C 3,9 C 70 % 1015,6 hPa 0,0 l/m 0 min 0 min 0 W/m 12,9 km/h (3 Bft) 95,74 %
13.03.2022 03:04 8,1 C 7,2 C 3,3 C 70 % 1015,6 hPa 0,0 l/m 0 min 0 min 0 W/m 12,9 km/h (3 Bft) 93,62 %
13.03.2022 03:06 8,1 C 7,2 C 3,3 C 69 % 1015,6 hPa 0,0 l/m 0 min 0 min 0 W/m 12,9 km/h (3 Bft) 93,62 %
13.03.2022 03:08 8,1 C 7,2 C 3,3 C 69 % 1015,6 hPa 0,0 l/m 0 min 0 min 0 W/m 12,9 km/h (3 Bft) 95,74 %
13.03.2022 03:10 8,0 C 7,2 C 3,3 C 69 % 1015,5 hPa 0,0 l/m 0 min 0 min 0 W/m 16,1 km/h (3 Bft) 93,48 %
13.03.2022 03:12 8,0 C 7,2 C 3,3 C 69 % 1015,5 hPa 0,0 l/m 0 min 0 min 0 W/m 12,9 km/h (3 Bft) 95,74 %
13.03.2022 03:14 7,9 C 7,2 C 3,3 C 69 % 1015,6 hPa 0,0 l/m 0 min 0 min 0 W/m 6,4 km/h (2 Bft) 95,74 %
13.03.2022 03:16 7,9 C 6,7 C 3,3 C 69 % 1015,5 hPa 0,0 l/m 0 min 0 min 0 W/m 12,9 km/h (3 Bft) 95,74 %
13.03.2022 03:18 7,9 C 6,7 C 3,3 C 68 % 1015,6 hPa 0,0 l/m 0 min 0 min 0 W/m 6,4 km/h (2 Bft) 93,62 %
13.03.2022 03:20 7,8 C 6,7 C 3,3 C 68 % 1015,5 hPa 0,0 l/m 0 min 0 min 0 W/m 12,9 km/h (3 Bft) 93,62 %
13.03.2022 03:22 7,8 C 6,7 C 3,3 C 68 % 1015,5 hPa 0,0 l/m 0 min 0 min 0 W/m 3,2 km/h (1 Bft) 95,65 %
13.03.2022 03:24 7,8 C 6,7 C 3,3 C 68 % 1015,5 hPa 0,0 l/m 0 min 0 min 0 W/m 6,4 km/h (2 Bft) 91,49 %
13.03.2022 03:26 7,8 C 6,7 C 3,3 C 68 % 1015,5 hPa 0,0 l/m 0 min 0 min 0 W/m 6,4 km/h (2 Bft) 97,87 %
13.03.2022 03:28 7,8 C 6,7 C 3,3 C 68 % 1015,4 hPa 0,0 l/m 0 min 0 min 0 W/m 12,9 km/h (3 Bft) 97,87 %
13.03.2022 03:30 7,7 C 6,7 C 3,3 C 68 % 1015,4 hPa 0,0 l/m 0 min 0 min 0 W/m 12,9 km/h (3 Bft) 97,87 %
13.03.2022 03:32 7,7 C 6,7 C 3,3 C 68 % 1015,5 hPa 0,0 l/m 0 min 0 min 0 W/m 6,4 km/h (2 Bft) 97,87 %
13.03.2022 03:34 7,7 C 6,7 C 3,3 C 67 % 1015,4 hPa 0,0 l/m 0 min 0 min 0 W/m 6,4 km/h (2 Bft) 97,83 %
13.03.2022 03:36 7,7 C 6,7 C 3,3 C 68 % 1015,4 hPa 0,0 l/m 0 min 0 min 0 W/m 6,4 km/h (2 Bft) 97,87 %
13.03.2022 03:38 7,7 C 6,7 C 3,3 C 67 % 1015,4 hPa 0,0 l/m 0 min 0 min 0 W/m 16,1 km/h (3 Bft) 97,87 %
13.03.2022 03:40 7,6 C 6,7 C 3,3 C 67 % 1015,4 hPa 0,0 l/m 0 min 0 min 0 W/m 12,9 km/h (3 Bft) 97,87 %
13.03.2022 03:42 7,6 C 6,7 C 3,3 C 67 % 1015,4 hPa 0,0 l/m 0 min 0 min 0 W/m 9,7 km/h (2 Bft) 97,87 %
13.03.2022 03:44 7,6 C 6,7 C 3,3 C 67 % 1015,5 hPa 0,0 l/m 0 min 0 min 0 W/m 12,9 km/h (3 Bft) 100,00 %
13.03.2022 03:46 7,6 C 6,7 C 3,3 C 67 % 1015,4 hPa 0,0 l/m 0 min 0 min 0 W/m 6,4 km/h (2 Bft) 100,00 %
13.03.2022 03:48 7,5 C 6,7 C 2,8 C 66 % 1015,4 hPa 0,0 l/m 0 min 0 min 0 W/m 6,4 km/h (2 Bft) 100,00 %
13.03.2022 03:50 7,5 C 6,7 C 2,8 C 66 % 1015,4 hPa 0,0 l/m 0 min 0 min 0 W/m 12,9 km/h (3 Bft) 97,87 %
13.03.2022 03:52 7,4 C 6,7 C 2,8 C 66 % 1015,4 hPa 0,0 l/m 0 min 0 min 0 W/m 12,9 km/h (3 Bft) 100,00 %
13.03.2022 03:54 7,4 C 6,7 C 2,8 C 66 % 1015,3 hPa 0,0 l/m 0 min 0 min 0 W/m 12,9 km/h (3 Bft) 97,87 %
13.03.2022 03:56 7,4 C 6,1 C 2,8 C 66 % 1015,2 hPa 0,0 l/m 0 min 0 min 0 W/m 6,4 km/h (2 Bft) 100,00 %
13.03.2022 03:58 7,3 C 6,1 C 2,8 C 66 % 1015,2 hPa 0,0 l/m 0 min 0 min 0 W/m 12,9 km/h (3 Bft) 97,83 %
13.03.2022 04:00 7,3 C 6,1 C 2,8 C 66 % 1015,2 hPa 0,0 l/m 0 min 0 min 0 W/m 9,7 km/h (2 Bft) 97,87 %
13.03.2022 04:02 7,3 C 6,1 C 2,8 C 66 % 1015,2 hPa 0,0 l/m 0 min 0 min 0 W/m 6,4 km/h (2 Bft) 100,00 %
13.03.2022 04:04 7,2 C 6,1 C 2,8 C 66 % 1015,2 hPa 0,0 l/m 0 min 0 min 0 W/m 12,9 km/h (3 Bft) 97,87 %
13.03.2022 04:06 7,2 C 6,1 C 2,8 C 65 % 1015,2 hPa 0,0 l/m 0 min 0 min 0 W/m 12,9 km/h (3 Bft) 97,87 %
13.03.2022 04:08 7,2 C 6,1 C 2,8 C 65 % 1015,2 hPa 0,0 l/m 0 min 0 min 0 W/m 12,9 km/h (3 Bft) 97,87 %
13.03.2022 04:10 7,2 C 6,1 C 2,8 C 65 % 1015,3 hPa 0,0 l/m 0 min 0 min 0 W/m 12,9 km/h (3 Bft) 97,83 %
13.03.2022 04:12 7,1 C 6,1 C 2,8 C 65 % 1015,3 hPa 0,0 l/m 0 min 0 min 0 W/m 22,5 km/h (4 Bft) 97,87 %
13.03.2022 04:14 7,1 C 6,1 C 2,8 C 65 % 1015,2 hPa 0,0 l/m 0 min 0 min 0 W/m 9,7 km/h (2 Bft) 97,87 %
13.03.2022 04:16 7,1 C 6,1 C 2,8 C 65 % 1015,3 hPa 0,0 l/m 0 min 0 min 0 W/m 12,9 km/h (3 Bft) 97,87 %
13.03.2022 04:18 7,1 C 6,1 C 2,8 C 65 % 1015,3 hPa 0,0 l/m 0 min 0 min 0 W/m 12,9 km/h (3 Bft) 97,87 %
13.03.2022 04:20 7,1 C 6,1 C 2,8 C 65 % 1015,3 hPa 0,0 l/m 0 min 0 min 0 W/m 12,9 km/h (3 Bft) 95,74 %
13.03.2022 04:22 7,0 C 6,1 C 2,8 C 65 % 1015,3 hPa 0,0 l/m 0 min 0 min 0 W/m 12,9 km/h (3 Bft) 93,48 %
13.03.2022 04:24 7,0 C 6,1 C 2,8 C 64 % 1015,3 hPa 0,0 l/m 0 min 0 min 0 W/m 12,9 km/h (3 Bft) 97,87 %
13.03.2022 04:26 7,0 C 6,1 C 2,8 C 64 % 1015,3 hPa 0,0 l/m 0 min 0 min 0 W/m 16,1 km/h (3 Bft) 97,87 %
13.03.2022 04:28 6,9 C 6,1 C 2,8 C 64 % 1015,3 hPa 0,0 l/m 0 min 0 min 0 W/m 16,1 km/h (3 Bft) 97,87 %
13.03.2022 04:30 6,9 C 6,1 C 2,8 C 64 % 1015,3 hPa 0,0 l/m 0 min 0 min 0 W/m 12,9 km/h (3 Bft) 97,87 %
13.03.2022 04:32 6,9 C 6,1 C 2,8 C 64 % 1015,3 hPa 0,0 l/m 0 min 0 min 0 W/m 12,9 km/h (3 Bft) 95,74 %
13.03.2022 04:34 6,9 C 6,1 C 2,8 C 64 % 1015,2 hPa 0,0 l/m 0 min 0 min 0 W/m 12,9 km/h (3 Bft) 97,83 %
13.03.2022 04:36 6,9 C 6,1 C 2,8 C 64 % 1015,3 hPa 0,0 l/m 0 min 0 min 0 W/m 16,1 km/h (3 Bft) 97,87 %
13.03.2022 04:38 6,8 C 6,1 C 2,8 C 64 % 1015,3 hPa 0,0 l/m 0 min 0 min 0 W/m 12,9 km/h (3 Bft) 53,33 %
13.03.2022 04:40 6,8 C 6,1 C 2,8 C 64 % 1015,2 hPa 0,0 l/m 0 min 0 min 0 W/m 12,9 km/h (3 Bft) 97,87 %
13.03.2022 04:42 6,8 C 6,1 C 2,8 C 63 % 1015,3 hPa 0,0 l/m 0 min 0 min 0 W/m 12,9 km/h (3 Bft) 93,62 %
13.03.2022 04:44 6,8 C 6,1 C 2,8 C 63 % 1015,3 hPa 0,0 l/m 0 min 0 min 0 W/m 16,1 km/h (3 Bft) 93,48 %
13.03.2022 04:46 6,8 C 6,1 C 2,8 C 63 % 1015,2 hPa 0,0 l/m 0 min 0 min 0 W/m 12,9 km/h (3 Bft) 97,87 %
13.03.2022 04:48 6,8 C 6,1 C 2,8 C 63 % 1015,2 hPa 0,0 l/m 0 min 0 min 0 W/m 12,9 km/h (3 Bft) 97,87 %
13.03.2022 04:50 6,8 C 6,1 C 2,8 C 63 % 1015,3 hPa 0,0 l/m 0 min 0 min 0 W/m 6,4 km/h (2 Bft) 97,87 %
13.03.2022 04:52 6,8 C 6,1 C 2,8 C 63 % 1015,3 hPa 0,0 l/m 0 min 0 min 0 W/m 3,2 km/h (1 Bft) 95,74 %
13.03.2022 04:54 6,8 C 6,1 C 2,8 C 63 % 1015,2 hPa 0,0 l/m 0 min 0 min 0 W/m 12,9 km/h (3 Bft) 97,87 %
13.03.2022 04:56 6,8 C 6,1 C 2,8 C 63 % 1015,2 hPa 0,0 l/m 0 min 0 min 0 W/m 9,7 km/h (2 Bft) 97,83 %
13.03.2022 04:58 6,8 C 6,1 C 2,8 C 63 % 1015,2 hPa 0,0 l/m 0 min 0 min 0 W/m 12,9 km/h (3 Bft) 97,87 %
13.03.2022 05:00 6,8 C 6,1 C 2,8 C 63 % 1015,2 hPa 0,0 l/m 0 min 0 min 0 W/m 12,9 km/h (3 Bft) 97,87 %
13.03.2022 05:02 6,8 C 6,1 C 2,8 C 63 % 1015,2 hPa 0,0 l/m 0 min 0 min 0 W/m 12,9 km/h (3 Bft) 95,74 %
13.03.2022 05:04 6,8 C 6,1 C 2,8 C 63 % 1015,2 hPa 0,0 l/m 0 min 0 min 0 W/m 12,9 km/h (3 Bft) 93,62 %
13.03.2022 05:06 6,8 C 6,1 C 2,8 C 63 % 1015,1 hPa 0,0 l/m 0 min 0 min 0 W/m 12,9 km/h (3 Bft) 93,75 %
13.03.2022 05:08 6,8 C 6,1 C 2,8 C 63 % 1015,1 hPa 0,0 l/m 0 min 0 min 0 W/m 12,9 km/h (3 Bft) 97,83 %
13.03.2022 05:10 6,9 C 6,1 C 2,8 C 63 % 1015,1 hPa 0,0 l/m 0 min 0 min 0 W/m 16,1 km/h (3 Bft) 97,87 %
13.03.2022 05:12 6,8 C 6,1 C 2,8 C 62 % 1015,1 hPa 0,0 l/m 0 min 0 min 0 W/m 12,9 km/h (3 Bft) 97,87 %
13.03.2022 05:14 6,9 C 6,1 C 2,8 C 62 % 1015,0 hPa 0,0 l/m 0 min 0 min 0 W/m 16,1 km/h (3 Bft) 100,00 %
13.03.2022 05:16 6,9 C 6,1 C 2,8 C 62 % 1015,0 hPa 0,0 l/m 0 min 0 min 0 W/m 12,9 km/h (3 Bft) 100,00 %
13.03.2022 05:18 6,9 C 6,7 C 2,8 C 61 % 1015,0 hPa 0,0 l/m 0 min 0 min 0 W/m 16,1 km/h (3 Bft) 100,00 %
13.03.2022 05:20 6,9 C 6,7 C 2,8 C 61 % 1015,1 hPa 0,0 l/m 0 min 0 min 0 W/m 16,1 km/h (3 Bft) 100,00 %
13.03.2022 05:22 6,9 C 6,7 C 2,8 C 60 % 1015,1 hPa 0,0 l/m 0 min 0 min 0 W/m 16,1 km/h (3 Bft) 100,00 %
13.03.2022 05:24 7,0 C 6,7 C 2,8 C 60 % 1015,1 hPa 0,0 l/m 0 min 0 min 0 W/m 22,5 km/h (4 Bft) 100,00 %
13.03.2022 05:26 7,1 C 6,7 C 2,8 C 59 % 1015,0 hPa 0,0 l/m 0 min 0 min 0 W/m 19,3 km/h (3 Bft) 97,87 %
13.03.2022 05:28 7,1 C 6,7 C 3,3 C 59 % 1015,1 hPa 0,0 l/m 0 min 0 min 0 W/m 19,3 km/h (3 Bft) 100,00 %
13.03.2022 05:30 7,2 C 6,7 C 3,3 C 59 % 1015,1 hPa 0,0 l/m 0 min 0 min 0 W/m 12,9 km/h (3 Bft) 97,87 %
13.03.2022 05:32 7,2 C 6,7 C 3,3 C 58 % 1015,1 hPa 0,0 l/m 0 min 0 min 0 W/m 16,1 km/h (3 Bft) 100,00 %
13.03.2022 05:34 7,2 C 6,7 C 3,3 C 58 % 1015,0 hPa 0,0 l/m 0 min 0 min 0 W/m 16,1 km/h (3 Bft) 100,00 %
13.03.2022 05:36 7,2 C 6,7 C 3,3 C 58 % 1015,0 hPa 0,0 l/m 0 min 0 min 0 W/m 16,1 km/h (3 Bft) 100,00 %
13.03.2022 05:38 7,3 C 6,7 C 3,3 C 58 % 1015,0 hPa 0,0 l/m 0 min 0 min 0 W/m 12,9 km/h (3 Bft) 100,00 %
13.03.2022 05:40 7,3 C 6,7 C 3,3 C 58 % 1014,9 hPa 0,0 l/m 0 min 0 min 0 W/m 19,3 km/h (3 Bft) 100,00 %
13.03.2022 05:42 7,3 C 6,7 C 3,3 C 58 % 1014,9 hPa 0,0 l/m 0 min 0 min 0 W/m 12,9 km/h (3 Bft) 100,00 %
13.03.2022 05:44 7,3 C 6,7 C 3,3 C 58 % 1015,0 hPa 0,0 l/m 0 min 0 min 0 W/m 12,9 km/h (3 Bft) 100,00 %
13.03.2022 05:46 7,3 C 6,7 C 3,3 C 58 % 1015,0 hPa 0,0 l/m 0 min 0 min 0 W/m 19,3 km/h (3 Bft) 100,00 %
13.03.2022 05:48 7,3 C 6,7 C 3,3 C 58 % 1015,0 hPa 0,0 l/m 0 min 0 min 0 W/m 12,9 km/h (3 Bft) 100,00 %
13.03.2022 05:50 7,4 C 6,7 C 3,3 C 58 % 1014,9 hPa 0,0 l/m 0 min 0 min 0 W/m 12,9 km/h (3 Bft) 97,87 %
13.03.2022 05:52 7,4 C 6,7 C 3,3 C 58 % 1014,9 hPa 0,0 l/m 0 min 0 min 0 W/m 12,9 km/h (3 Bft) 100,00 %
13.03.2022 05:54 7,4 C 6,7 C 3,3 C 58 % 1015,0 hPa 0,0 l/m 0 min 0 min 0 W/m 12,9 km/h (3 Bft) 97,83 %
13.03.2022 05:56 7,4 C 6,7 C 3,3 C 58 % 1015,1 hPa 0,0 l/m 0 min 0 min 0 W/m 12,9 km/h (3 Bft) 97,87 %
13.03.2022 05:58 7,4 C 6,7 C 3,3 C 58 % 1015,0 hPa 0,0 l/m 0 min 0 min 0 W/m 19,3 km/h (3 Bft) 97,87 %
13.03.2022 06:00 7,4 C 6,7 C 3,3 C 58 % 1014,9 hPa 0,0 l/m 0 min 0 min 0 W/m 12,9 km/h (3 Bft) 95,74 %
13.03.2022 06:02 7,4 C 6,7 C 2,8 C 58 % 1015,0 hPa 0,0 l/m 0 min 0 min 0 W/m 9,7 km/h (2 Bft) 97,87 %
13.03.2022 06:04 7,4 C 6,7 C 2,8 C 58 % 1015,0 hPa 0,0 l/m 0 min 0 min 0 W/m 12,9 km/h (3 Bft) 97,87 %
13.03.2022 06:08 7,4 C 6,7 C 2,8 C 58 % 1015,0 hPa 0,0 l/m 0 min 0 min 0 W/m 25,7 km/h (4 Bft) 97,85 %
13.03.2022 06:10 7,3 C 6,7 C 2,8 C 58 % 1015,2 hPa 0,0 l/m 0 min 0 min 0 W/m 16,1 km/h (3 Bft) 95,74 %
13.03.2022 06:12 7,3 C 6,7 C 2,8 C 58 % 1015,1 hPa 0,0 l/m 0 min 0 min 0 W/m 12,9 km/h (3 Bft) 95,74 %
13.03.2022 06:14 7,3 C 6,7 C 2,8 C 58 % 1015,0 hPa 0,0 l/m 0 min 0 min 0 W/m 9,7 km/h (2 Bft) 97,87 %
13.03.2022 06:16 7,3 C 6,7 C 2,8 C 58 % 1014,9 hPa 0,0 l/m 0 min 0 min 0 W/m 12,9 km/h (3 Bft) 97,87 %
13.03.2022 06:18 7,3 C 6,7 C 2,8 C 58 % 1014,9 hPa 0,0 l/m 0 min 0 min 0 W/m 12,9 km/h (3 Bft) 95,65 %
13.03.2022 06:20 7,3 C 6,7 C 2,8 C 58 % 1014,9 hPa 0,0 l/m 0 min 0 min 0 W/m 16,1 km/h (3 Bft) 97,87 %
13.03.2022 06:22 7,3 C 6,7 C 2,8 C 58 % 1014,9 hPa 0,0 l/m 0 min 0 min 0 W/m 16,1 km/h (3 Bft) 95,74 %
13.03.2022 06:24 7,3 C 6,7 C 2,8 C 58 % 1014,9 hPa 0,0 l/m 0 min 0 min 0 W/m 16,1 km/h (3 Bft) 97,87 %
13.03.2022 06:26 7,3 C 6,7 C 2,8 C 57 % 1014,8 hPa 0,0 l/m 0 min 0 min 0 W/m 16,1 km/h (3 Bft) 97,87 %
13.03.2022 06:28 7,3 C 6,7 C 2,8 C 57 % 1014,8 hPa 0,0 l/m 0 min 0 min 0 W/m 16,1 km/h (3 Bft) 93,62 %
13.03.2022 06:30 7,3 C 6,7 C 2,8 C 57 % 1014,8 hPa 0,0 l/m 0 min 0 min 0 W/m 16,1 km/h (3 Bft) 97,83 %
13.03.2022 06:32 7,3 C 6,7 C 2,8 C 57 % 1014,9 hPa 0,0 l/m 0 min 0 min 0 W/m 16,1 km/h (3 Bft) 95,74 %
13.03.2022 06:34 7,3 C 6,7 C 2,8 C 56 % 1015,0 hPa 0,0 l/m 0 min 0 min 0 W/m 16,1 km/h (3 Bft) 91,49 %
13.03.2022 06:36 7,3 C 6,7 C 2,8 C 56 % 1015,0 hPa 0,0 l/m 0 min 0 min 0 W/m 12,9 km/h (3 Bft) 93,62 %
13.03.2022 06:38 7,3 C 6,7 C 3,3 C 56 % 1015,0 hPa 0,0 l/m 0 min 0 min 0 W/m 12,9 km/h (3 Bft) 93,62 %
13.03.2022 06:40 7,3 C 6,7 C 3,3 C 56 % 1015,0 hPa 0,0 l/m 0 min 0 min 0 W/m 19,3 km/h (3 Bft) 93,62 %
13.03.2022 06:42 7,3 C 6,7 C 3,3 C 56 % 1015,1 hPa 0,0 l/m 0 min 0 min 0 W/m 12,9 km/h (3 Bft) 93,48 %
13.03.2022 06:44 7,3 C 6,7 C 2,8 C 56 % 1015,1 hPa 0,0 l/m 0 min 0 min 0 W/m 16,1 km/h (3 Bft) 91,49 %
13.03.2022 06:46 7,3 C 6,7 C 2,8 C 56 % 1015,1 hPa 0,0 l/m 0 min 0 min 0 W/m 12,9 km/h (3 Bft) 93,62 %
13.03.2022 06:48 7,3 C 6,7 C 2,8 C 56 % 1015,1 hPa 0,0 l/m 0 min 0 min 0 W/m 16,1 km/h (3 Bft) 95,74 %
13.03.2022 06:50 7,3 C 6,7 C 2,8 C 56 % 1015,1 hPa 0,0 l/m 0 min 0 min 2 W/m 12,9 km/h (3 Bft) 93,62 %
13.03.2022 06:52 7,3 C 6,7 C 2,8 C 56 % 1015,1 hPa 0,0 l/m 0 min 0 min 5 W/m 16,1 km/h (3 Bft) 95,74 %
13.03.2022 06:54 7,3 C 6,7 C 3,3 C 56 % 1015,1 hPa 0,0 l/m 0 min 0 min 8 W/m 12,9 km/h (3 Bft) 95,65 %
13.03.2022 06:56 7,3 C 6,7 C 3,3 C 56 % 1015,0 hPa 0,0 l/m 0 min 0 min 10 W/m 12,9 km/h (3 Bft) 95,74 %
13.03.2022 06:58 7,3 C 6,7 C 3,3 C 55 % 1015,1 hPa 0,0 l/m 0 min 0 min 11 W/m 16,1 km/h (3 Bft) 91,49 %
13.03.2022 07:00 7,3 C 6,7 C 3,3 C 55 % 1015,2 hPa 0,0 l/m 0 min 0 min 11 W/m 16,1 km/h (3 Bft) 95,74 %
13.03.2022 07:02 7,4 C 6,7 C 3,3 C 55 % 1015,3 hPa 0,0 l/m 0 min 0 min 11 W/m 16,1 km/h (3 Bft) 95,74 %
13.03.2022 07:04 7,4 C 6,7 C 3,3 C 55 % 1015,3 hPa 0,0 l/m 0 min 0 min 9 W/m 16,1 km/h (3 Bft) 95,65 %
13.03.2022 07:06 7,4 C 6,7 C 3,3 C 55 % 1015,3 hPa 0,0 l/m 0 min 0 min 9 W/m 12,9 km/h (3 Bft) 93,62 %
13.03.2022 07:08 7,4 C 6,7 C 3,3 C 55 % 1015,3 hPa 0,0 l/m 0 min 0 min 9 W/m 19,3 km/h (3 Bft) 95,74 %
13.03.2022 07:10 7,4 C 6,7 C 3,3 C 55 % 1015,3 hPa 0,0 l/m 0 min 0 min 7 W/m 12,9 km/h (3 Bft) 97,87 %
13.03.2022 07:12 7,4 C 6,7 C 3,3 C 55 % 1015,3 hPa 0,0 l/m 0 min 0 min 7 W/m 16,1 km/h (3 Bft) 100,00 %
13.03.2022 07:14 7,4 C 6,7 C 3,3 C 55 % 1015,3 hPa 0,0 l/m 0 min 0 min 7 W/m 12,9 km/h (3 Bft) 97,87 %
13.03.2022 07:16 7,4 C 6,7 C 2,8 C 55 % 1015,3 hPa 0,0 l/m 0 min 0 min 7 W/m 12,9 km/h (3 Bft) 100,00 %
13.03.2022 07:18 7,4 C 6,7 C 2,8 C 56 % 1015,2 hPa 0,0 l/m 0 min 0 min 7 W/m 6,4 km/h (2 Bft) 97,87 %
13.03.2022 07:20 7,4 C 6,7 C 2,8 C 56 % 1015,3 hPa 0,0 l/m 0 min 0 min 7 W/m 12,9 km/h (3 Bft) 100,00 %
13.03.2022 07:22 7,3 C 6,7 C 2,8 C 56 % 1015,3 hPa 0,0 l/m 0 min 0 min 7 W/m 12,9 km/h (3 Bft) 97,87 %
13.03.2022 07:24 7,3 C 6,7 C 2,8 C 56 % 1015,3 hPa 0,0 l/m 0 min 0 min 7 W/m 6,4 km/h (2 Bft) 100,00 %
13.03.2022 07:26 7,3 C 6,7 C 2,8 C 56 % 1015,3 hPa 0,0 l/m 0 min 0 min 7 W/m 6,4 km/h (2 Bft) 100,00 %
13.03.2022 07:28 7,3 C 6,7 C 2,8 C 56 % 1015,3 hPa 0,0 l/m 0 min 0 min 7 W/m 12,9 km/h (3 Bft) 97,83 %
13.03.2022 07:30 7,3 C 6,7 C 2,8 C 56 % 1015,4 hPa 0,0 l/m 0 min 0 min 8 W/m 12,9 km/h (3 Bft) 100,00 %
13.03.2022 07:32 7,3 C 6,7 C 2,8 C 56 % 1015,3 hPa 0,0 l/m 0 min 0 min 9 W/m 12,9 km/h (3 Bft) 100,00 %
13.03.2022 07:34 7,3 C 6,7 C 2,8 C 56 % 1015,3 hPa 0,0 l/m 0 min 0 min 10 W/m 12,9 km/h (3 Bft) 100,00 %
13.03.2022 07:36 7,3 C 6,7 C 2,8 C 56 % 1015,3 hPa 0,0 l/m 0 min 0 min 12 W/m 19,3 km/h (3 Bft) 100,00 %
13.03.2022 07:38 7,3 C 6,7 C 2,8 C 56 % 1015,3 hPa 0,0 l/m 0 min 0 min 18 W/m 16,1 km/h (3 Bft) 100,00 %
13.03.2022 07:40 7,3 C 6,7 C 2,8 C 55 % 1015,3 hPa 0,0 l/m 0 min 0 min 22 W/m 12,9 km/h (3 Bft) 97,83 %
13.03.2022 07:42 7,3 C 6,7 C 2,8 C 56 % 1015,3 hPa 0,0 l/m 0 min 0 min 25 W/m 12,9 km/h (3 Bft) 100,00 %
13.03.2022 07:44 7,3 C 6,7 C 2,8 C 56 % 1015,3 hPa 0,0 l/m 0 min 0 min 26 W/m 9,7 km/h (2 Bft) 100,00 %
13.03.2022 07:46 7,3 C 6,7 C 2,8 C 55 % 1015,3 hPa 0,0 l/m 0 min 0 min 26 W/m 12,9 km/h (3 Bft) 100,00 %
13.03.2022 07:48 7,3 C 6,7 C 2,8 C 55 % 1015,3 hPa 0,0 l/m 0 min 0 min 26 W/m 12,9 km/h (3 Bft) 100,00 %
13.03.2022 07:50 7,3 C 6,7 C 3,3 C 55 % 1015,2 hPa 0,0 l/m 0 min 0 min 25 W/m 19,3 km/h (3 Bft) 100,00 %
13.03.2022 07:52 7,3 C 6,7 C 3,3 C 55 % 1015,2 hPa 0,0 l/m 0 min 0 min 21 W/m 16,1 km/h (3 Bft) 100,00 %
13.03.2022 07:54 7,3 C 6,7 C 3,3 C 55 % 1015,2 hPa 0,0 l/m 0 min 0 min 18 W/m 16,1 km/h (3 Bft) 100,00 %
13.03.2022 07:56 7,3 C 6,7 C 3,3 C 55 % 1015,2 hPa 0,0 l/m 0 min 0 min 19 W/m 19,3 km/h (3 Bft) 97,87 %
13.03.2022 07:58 7,3 C 6,7 C 3,3 C 55 % 1015,2 hPa 0,0 l/m 0 min 0 min 23 W/m 16,1 km/h (3 Bft) 100,00 %
13.03.2022 08:00 7,3 C 6,7 C 3,3 C 55 % 1015,2 hPa 0,0 l/m 0 min 0 min 27 W/m 16,1 km/h (3 Bft) 100,00 %
13.03.2022 08:02 7,3 C 6,7 C 3,3 C 55 % 1015,3 hPa 0,0 l/m 0 min 0 min 32 W/m 9,7 km/h (2 Bft) 100,00 %
13.03.2022 08:04 7,4 C 6,7 C 3,3 C 55 % 1015,3 hPa 0,0 l/m 0 min 0 min 36 W/m 6,4 km/h (2 Bft) 100,00 %
13.03.2022 08:06 7,4 C 6,7 C 3,3 C 55 % 1015,2 hPa 0,0 l/m 0 min 0 min 37 W/m 12,9 km/h (3 Bft) 100,00 %
13.03.2022 08:08 7,4 C 7,2 C 3,3 C 55 % 1015,2 hPa 0,0 l/m 0 min 0 min 39 W/m 12,9 km/h (3 Bft) 100,00 %
13.03.2022 08:10 7,4 C 7,2 C 3,3 C 55 % 1015,2 hPa 0,0 l/m 0 min 0 min 38 W/m 6,4 km/h (2 Bft) 100,00 %
13.03.2022 08:12 7,4 C 7,2 C 3,3 C 55 % 1015,2 hPa 0,0 l/m 0 min 0 min 34 W/m 16,1 km/h (3 Bft) 100,00 %
13.03.2022 08:14 7,4 C 7,2 C 3,3 C 54 % 1015,1 hPa 0,0 l/m 0 min 0 min 29 W/m 16,1 km/h (3 Bft) 100,00 %
13.03.2022 08:16 7,5 C 7,2 C 3,3 C 54 % 1015,1 hPa 0,0 l/m 0 min 0 min 27 W/m 16,1 km/h (3 Bft) 100,00 %
13.03.2022 08:18 7,5 C 7,2 C 3,3 C 54 % 1015,1 hPa 0,0 l/m 0 min 0 min 27 W/m 16,1 km/h (3 Bft) 100,00 %
13.03.2022 08:20 7,5 C 7,2 C 3,3 C 54 % 1015,2 hPa 0,0 l/m 0 min 0 min 28 W/m 16,1 km/h (3 Bft) 100,00 %
13.03.2022 08:22 7,5 C 7,2 C 3,3 C 54 % 1015,2 hPa 0,0 l/m 0 min 0 min 26 W/m 12,9 km/h (3 Bft) 100,00 %
13.03.2022 08:24 7,6 C 7,2 C 3,3 C 54 % 1015,2 hPa 0,0 l/m 0 min 0 min 27 W/m 19,3 km/h (3 Bft) 100,00 %
13.03.2022 08:26 7,6 C 7,2 C 3,3 C 54 % 1015,2 hPa 0,0 l/m 0 min 0 min 29 W/m 16,1 km/h (3 Bft) 100,00 %
13.03.2022 08:28 7,6 C 7,2 C 3,3 C 54 % 1015,2 hPa 0,0 l/m 0 min 0 min 27 W/m 16,1 km/h (3 Bft) 100,00 %
13.03.2022 08:30 7,6 C 7,2 C 3,3 C 54 % 1015,2 hPa 0,0 l/m 0 min 0 min 30 W/m 19,3 km/h (3 Bft) 100,00 %
13.03.2022 08:32 7,6 C 7,2 C 3,3 C 54 % 1015,3 hPa 0,0 l/m 0 min 0 min 33 W/m 12,9 km/h (3 Bft) 100,00 %
13.03.2022 08:34 7,6 C 7,2 C 3,3 C 53 % 1015,2 hPa 0,0 l/m 0 min 0 min 37 W/m 16,1 km/h (3 Bft) 97,87 %
13.03.2022 08:36 7,6 C 7,2 C 3,3 C 53 % 1015,3 hPa 0,0 l/m 0 min 0 min 41 W/m 19,3 km/h (3 Bft) 97,87 %
13.03.2022 08:38 7,6 C 7,2 C 3,3 C 53 % 1015,3 hPa 0,0 l/m 0 min 0 min 44 W/m 19,3 km/h (3 Bft) 100,00 %
13.03.2022 08:40 7,6 C 7,2 C 3,3 C 53 % 1015,4 hPa 0,0 l/m 0 min 0 min 40 W/m 16,1 km/h (3 Bft) 97,83 %
13.03.2022 08:42 7,7 C 7,2 C 3,3 C 53 % 1015,3 hPa 0,0 l/m 0 min 0 min 43 W/m 19,3 km/h (3 Bft) 95,74 %
13.03.2022 08:44 7,7 C 7,2 C 3,3 C 53 % 1015,3 hPa 0,0 l/m 0 min 0 min 47 W/m 19,3 km/h (3 Bft) 56,52 %
13.03.2022 08:46 7,7 C 7,2 C 3,3 C 53 % 1015,2 hPa 0,0 l/m 0 min 0 min 55 W/m 12,9 km/h (3 Bft) 97,87 %
13.03.2022 08:48 7,7 C 7,2 C 3,3 C 53 % 1015,2 hPa 0,0 l/m 0 min 0 min 66 W/m 12,9 km/h (3 Bft) 93,62 %
13.03.2022 08:50 7,7 C 7,2 C 3,3 C 53 % 1015,2 hPa 0,0 l/m 0 min 0 min 78 W/m 16,1 km/h (3 Bft) 95,74 %
13.03.2022 08:52 7,7 C 7,2 C 3,9 C 53 % 1015,2 hPa 0,0 l/m 0 min 0 min 84 W/m 19,3 km/h (3 Bft) 95,65 %
13.03.2022 08:54 7,8 C 7,2 C 3,9 C 52 % 1015,2 hPa 0,0 l/m 0 min 0 min 82 W/m 16,1 km/h (3 Bft) 93,62 %
13.03.2022 08:56 7,8 C 7,8 C 3,9 C 53 % 1015,2 hPa 0,0 l/m 0 min 0 min 83 W/m 19,3 km/h (3 Bft) 95,74 %
13.03.2022 08:58 7,8 C 7,8 C 3,9 C 52 % 1015,2 hPa 0,0 l/m 0 min 0 min 77 W/m 9,7 km/h (2 Bft) 93,62 %
13.03.2022 09:00 7,8 C 7,8 C 3,9 C 53 % 1015,3 hPa 0,0 l/m 0 min 0 min 87 W/m 12,9 km/h (3 Bft) 95,74 %
13.03.2022 09:02 7,9 C 8,9 C 3,9 C 53 % 1015,3 hPa 0,0 l/m 2 min 0 min 224 W/m 19,3 km/h (3 Bft) 95,65 %
13.03.2022 09:04 7,9 C 8,9 C 3,9 C 53 % 1015,3 hPa 0,0 l/m 2 min 0 min 287 W/m 16,1 km/h (3 Bft) 93,62 %
13.03.2022 09:06 8,1 C 9,4 C 3,9 C 52 % 1015,3 hPa 0,0 l/m 2 min 0 min 274 W/m 16,1 km/h (3 Bft) 93,62 %
13.03.2022 09:08 8,1 C 9,4 C 3,9 C 52 % 1015,2 hPa 0,0 l/m 2 min 0 min 237 W/m 12,9 km/h (3 Bft) 95,74 %
13.03.2022 09:10 8,2 C 9,4 C 4,4 C 52 % 1015,2 hPa 0,0 l/m 2 min 0 min 213 W/m 19,3 km/h (3 Bft) 93,62 %
13.03.2022 09:12 8,3 C 9,4 C 4,4 C 52 % 1015,2 hPa 0,0 l/m 0 min 0 min 151 W/m 22,5 km/h (4 Bft) 95,74 %
13.03.2022 09:14 8,4 C 10,0 C 4,4 C 52 % 1015,3 hPa 0,0 l/m 2 min 0 min 245 W/m 12,9 km/h (3 Bft) 95,65 %
13.03.2022 09:16 8,5 C 10,0 C 5,0 C 52 % 1015,2 hPa 0,0 l/m 2 min 0 min 245 W/m 19,3 km/h (3 Bft) 95,74 %
13.03.2022 09:18 8,6 C 10,0 C 5,0 C 51 % 1015,2 hPa 0,0 l/m 2 min 0 min 242 W/m 16,1 km/h (3 Bft) 95,74 %
13.03.2022 09:20 8,7 C 10,0 C 5,0 C 51 % 1015,3 hPa 0,0 l/m 2 min 0 min 280 W/m 19,3 km/h (3 Bft) 93,62 %
13.03.2022 09:22 8,8 C 10,0 C 5,0 C 51 % 1015,2 hPa 0,0 l/m 2 min 0 min 309 W/m 22,5 km/h (4 Bft) 95,74 %
13.03.2022 09:24 8,9 C 10,0 C 5,0 C 50 % 1015,2 hPa 0,0 l/m 2 min 0 min 252 W/m 25,7 km/h (4 Bft) 95,74 %
13.03.2022 09:26 9,1 C 10,0 C 5,0 C 50 % 1015,3 hPa 0,0 l/m 2 min 0 min 254 W/m 16,1 km/h (3 Bft) 95,65 %
13.03.2022 09:28 9,1 C 10,0 C 5,6 C 50 % 1015,2 hPa 0,0 l/m 2 min 0 min 203 W/m 16,1 km/h (3 Bft) 93,62 %
13.03.2022 09:30 9,2 C 10,0 C 5,6 C 51 % 1015,2 hPa 0,0 l/m 2 min 0 min 211 W/m 22,5 km/h (4 Bft) 95,74 %
13.03.2022 09:32 9,2 C 9,4 C 5,6 C 50 % 1015,2 hPa 0,0 l/m 2 min 0 min 216 W/m 19,3 km/h (3 Bft) 97,87 %
13.03.2022 09:34 9,3 C 9,4 C 5,6 C 50 % 1015,2 hPa 0,0 l/m 2 min 0 min 212 W/m 22,5 km/h (4 Bft) 97,87 %
13.03.2022 09:36 9,3 C 9,4 C 5,6 C 50 % 1015,2 hPa 0,0 l/m 2 min 0 min 199 W/m 19,3 km/h (3 Bft) 95,74 %
13.03.2022 09:38 9,3 C 9,4 C 5,0 C 50 % 1015,2 hPa 0,0 l/m 0 min 0 min 191 W/m 22,5 km/h (4 Bft) 97,83 %
13.03.2022 09:40 9,3 C 9,4 C 5,0 C 49 % 1015,2 hPa 0,0 l/m 0 min 0 min 193 W/m 19,3 km/h (3 Bft) 97,87 %
13.03.2022 09:42 9,3 C 9,4 C 5,6 C 49 % 1015,2 hPa 0,0 l/m 2 min 0 min 204 W/m 19,3 km/h (3 Bft) 97,87 %
13.03.2022 09:44 9,3 C 9,4 C 5,6 C 49 % 1015,2 hPa 0,0 l/m 2 min 0 min 206 W/m 19,3 km/h (3 Bft) 97,87 %
13.03.2022 09:46 9,3 C 9,4 C 5,6 C 49 % 1015,3 hPa 0,0 l/m 0 min 0 min 199 W/m 16,1 km/h (3 Bft) 97,87 %
13.03.2022 09:48 9,3 C 9,4 C 5,6 C 49 % 1015,3 hPa 0,0 l/m 0 min 0 min 195 W/m 22,5 km/h (4 Bft) 97,87 %
13.03.2022 09:50 9,4 C 9,4 C 5,6 C 49 % 1015,3 hPa 0,0 l/m 0 min 0 min 190 W/m 16,1 km/h (3 Bft) 97,83 %
13.03.2022 09:52 9,4 C 9,4 C 5,6 C 50 % 1015,3 hPa 0,0 l/m 0 min 0 min 190 W/m 16,1 km/h (3 Bft) 95,74 %
13.03.2022 09:54 9,4 C 9,4 C 5,6 C 50 % 1015,3 hPa 0,0 l/m 0 min 0 min 199 W/m 16,1 km/h (3 Bft) 97,87 %
13.03.2022 09:56 9,4 C 9,4 C 5,6 C 50 % 1015,2 hPa 0,0 l/m 0 min 0 min 208 W/m 16,1 km/h (3 Bft) 97,87 %
13.03.2022 09:58 9,4 C 10,0 C 5,6 C 50 % 1015,2 hPa 0,0 l/m 0 min 0 min 204 W/m 16,1 km/h (3 Bft) 97,87 %
13.03.2022 10:00 9,5 C 10,0 C 5,6 C 50 % 1015,2 hPa 0,0 l/m 0 min 0 min 210 W/m 19,3 km/h (3 Bft) 97,87 %
13.03.2022 10:02 9,6 C 10,0 C 6,1 C 50 % 1015,2 hPa 0,0 l/m 2 min 0 min 262 W/m 12,9 km/h (3 Bft) 97,83 %
13.03.2022 10:04 9,6 C 10,6 C 6,1 C 50 % 1015,2 hPa 0,0 l/m 2 min 0 min 224 W/m 19,3 km/h (3 Bft) 100,00 %
13.03.2022 10:06 9,6 C 10,6 C 6,1 C 50 % 1015,2 hPa 0,0 l/m 0 min 0 min 196 W/m 19,3 km/h (3 Bft) 100,00 %
13.03.2022 10:08 9,7 C 10,6 C 6,1 C 49 % 1015,2 hPa 0,0 l/m 2 min 0 min 237 W/m 16,1 km/h (3 Bft) 100,00 %
13.03.2022 10:10 9,7 C 10,6 C 6,1 C 49 % 1015,2 hPa 0,0 l/m 0 min 0 min 203 W/m 19,3 km/h (3 Bft) 100,00 %
13.03.2022 10:12 9,7 C 10,6 C 6,1 C 49 % 1015,2 hPa 0,0 l/m 0 min 0 min 199 W/m 19,3 km/h (3 Bft) 97,87 %
13.03.2022 10:14 9,8 C 11,7 C 6,7 C 49 % 1015,1 hPa 0,0 l/m 2 min 0 min 268 W/m 19,3 km/h (3 Bft) 100,00 %
13.03.2022 10:16 9,8 C 12,2 C 7,8 C 49 % 1015,1 hPa 0,0 l/m 2 min 0 min 399 W/m 16,1 km/h (3 Bft) 93,62 %
13.03.2022 10:18 9,9 C 12,8 C 8,3 C 49 % 1015,1 hPa 0,0 l/m 2 min 0 min 453 W/m 19,3 km/h (3 Bft) 97,87 %
13.03.2022 10:20 10,1 C 12,2 C 8,9 C 48 % 1015,1 hPa 0,0 l/m 2 min 0 min 530 W/m 19,3 km/h (3 Bft) 97,87 %
13.03.2022 10:22 10,2 C 12,8 C 9,4 C 48 % 1015,1 hPa 0,0 l/m 2 min 0 min 445 W/m 19,3 km/h (3 Bft) 100,00 %
13.03.2022 10:24 10,3 C 13,9 C 9,4 C 49 % 1015,1 hPa 0,0 l/m 2 min 0 min 467 W/m 16,1 km/h (3 Bft) 100,00 %
13.03.2022 10:26 10,5 C 13,9 C 10,0 C 48 % 1015,1 hPa 0,0 l/m 2 min 0 min 388 W/m 16,1 km/h (3 Bft) 100,00 %
13.03.2022 10:28 10,7 C 14,4 C 10,6 C 48 % 1015,1 hPa 0,0 l/m 2 min 0 min 366 W/m 22,5 km/h (4 Bft) 100,00 %
13.03.2022 10:30 10,8 C 14,4 C 10,6 C 48 % 1015,2 hPa 0,0 l/m 2 min 0 min 302 W/m 19,3 km/h (3 Bft) 100,00 %
13.03.2022 10:32 10,9 C 15,0 C 11,1 C 48 % 1015,1 hPa 0,0 l/m 2 min 0 min 322 W/m 16,1 km/h (3 Bft) 100,00 %
13.03.2022 10:34 11,1 C 16,1 C 11,7 C 48 % 1015,1 hPa 0,0 l/m 2 min 0 min 432 W/m 16,1 km/h (3 Bft) 100,00 %
13.03.2022 10:36 11,2 C 16,1 C 11,7 C 48 % 1015,1 hPa 0,0 l/m 2 min 0 min 481 W/m 16,1 km/h (3 Bft) 100,00 %
13.03.2022 10:38 11,4 C 15,6 C 12,2 C 48 % 1015,1 hPa 0,0 l/m 2 min 0 min 525 W/m 22,5 km/h (4 Bft) 97,87 %
13.03.2022 10:40 11,5 C 16,1 C 12,8 C 48 % 1015,1 hPa 0,0 l/m 2 min 0 min 532 W/m 12,9 km/h (3 Bft) 97,87 %
13.03.2022 10:42 11,6 C 16,7 C 12,8 C 48 % 1015,1 hPa 0,0 l/m 2 min 0 min 541 W/m 16,1 km/h (3 Bft) 97,87 %
13.03.2022 10:44 11,8 C 16,7 C 12,8 C 47 % 1015,0 hPa 0,0 l/m 2 min 0 min 545 W/m 12,9 km/h (3 Bft) 47,37 %
13.03.2022 10:46 11,9 C 16,1 C 12,8 C 47 % 1015,0 hPa 0,0 l/m 2 min 0 min 552 W/m 29,0 km/h (5 Bft) 95,74 %
13.03.2022 10:48 12,0 C 16,1 C 12,8 C 47 % 1015,1 hPa 0,0 l/m 2 min 0 min 555 W/m 19,3 km/h (3 Bft) 97,83 %
13.03.2022 10:50 12,1 C 16,1 C 13,3 C 47 % 1015,0 hPa 0,0 l/m 2 min 0 min 558 W/m 22,5 km/h (4 Bft) 97,87 %
13.03.2022 10:52 12,2 C 16,7 C 13,9 C 47 % 1014,9 hPa 0,0 l/m 2 min 0 min 561 W/m 16,1 km/h (3 Bft) 97,87 %
13.03.2022 10:54 12,3 C 17,2 C 13,9 C 47 % 1014,9 hPa 0,0 l/m 2 min 0 min 564 W/m 19,3 km/h (3 Bft) 97,87 %
13.03.2022 10:56 12,3 C 17,8 C 13,9 C 46 % 1014,9 hPa 0,0 l/m 2 min 0 min 566 W/m 16,1 km/h (3 Bft) 97,87 %
13.03.2022 10:58 12,4 C 17,2 C 13,9 C 47 % 1014,9 hPa 0,0 l/m 2 min 0 min 568 W/m 19,3 km/h (3 Bft) 97,87 %
13.03.2022 11:00 12,4 C 17,2 C 13,9 C 46 % 1014,9 hPa 0,0 l/m 2 min 0 min 570 W/m 19,3 km/h (3 Bft) 93,48 %
13.03.2022 11:02 12,5 C 16,7 C 13,3 C 46 % 1015,0 hPa 0,0 l/m 2 min 0 min 573 W/m 25,7 km/h (4 Bft) 97,87 %
13.03.2022 11:04 12,5 C 17,2 C 13,9 C 46 % 1014,9 hPa 0,0 l/m 2 min 0 min 574 W/m 16,1 km/h (3 Bft) 97,87 %
13.03.2022 11:06 12,5 C 16,7 C 13,9 C 46 % 1014,9 hPa 0,0 l/m 2 min 0 min 580 W/m 29,0 km/h (5 Bft) 97,87 %
13.03.2022 11:08 12,6 C 17,8 C 13,9 C 46 % 1014,9 hPa 0,0 l/m 2 min 0 min 582 W/m 16,1 km/h (3 Bft) 100,00 %
13.03.2022 11:10 12,6 C 17,2 C 14,4 C 46 % 1014,9 hPa 0,0 l/m 2 min 0 min 585 W/m 16,1 km/h (3 Bft) 97,87 %
13.03.2022 11:12 12,7 C 17,8 C 14,4 C 46 % 1014,9 hPa 0,0 l/m 2 min 0 min 585 W/m 19,3 km/h (3 Bft) 95,65 %
13.03.2022 11:14 12,8 C 17,8 C 14,4 C 47 % 1014,9 hPa 0,0 l/m 2 min 0 min 588 W/m 19,3 km/h (3 Bft) 100,00 %
13.03.2022 11:16 12,8 C 17,8 C 13,9 C 46 % 1014,9 hPa 0,0 l/m 2 min 0 min 589 W/m 22,5 km/h (4 Bft) 100,00 %
13.03.2022 11:18 12,8 C 17,8 C 14,4 C 46 % 1014,8 hPa 0,0 l/m 2 min 0 min 593 W/m 22,5 km/h (4 Bft) 100,00 %
13.03.2022 11:20 12,9 C 18,3 C 14,4 C 46 % 1014,8 hPa 0,0 l/m 2 min 0 min 573 W/m 16,1 km/h (3 Bft) 100,00 %
13.03.2022 11:22 12,9 C 17,8 C 14,4 C 46 % 1014,8 hPa 0,0 l/m 2 min 0 min 596 W/m 22,5 km/h (4 Bft) 100,00 %
13.03.2022 11:24 13,0 C 18,3 C 14,4 C 46 % 1014,8 hPa 0,0 l/m 2 min 0 min 570 W/m 19,3 km/h (3 Bft) 100,00 %
13.03.2022 11:26 13,1 C 17,8 C 15,0 C 46 % 1014,8 hPa 0,0 l/m 2 min 0 min 601 W/m 19,3 km/h (3 Bft) 100,00 %
13.03.2022 11:28 13,1 C 18,3 C 15,0 C 46 % 1014,8 hPa 0,0 l/m 2 min 0 min 603 W/m 22,5 km/h (4 Bft) 97,87 %
13.03.2022 11:30 13,1 C 17,8 C 14,4 C 46 % 1014,8 hPa 0,0 l/m 2 min 0 min 605 W/m 25,7 km/h (4 Bft) 95,74 %
13.03.2022 11:32 13,2 C 18,3 C 15,0 C 47 % 1014,8 hPa 0,0 l/m 2 min 0 min 606 W/m 19,3 km/h (3 Bft) 95,74 %
13.03.2022 11:34 13,3 C 18,3 C 15,6 C 47 % 1014,8 hPa 0,0 l/m 2 min 0 min 609 W/m 19,3 km/h (3 Bft) 97,87 %
13.03.2022 11:36 13,4 C 18,3 C 15,6 C 46 % 1014,7 hPa 0,0 l/m 2 min 0 min 612 W/m 22,5 km/h (4 Bft) 95,65 %
13.03.2022 11:38 13,5 C 18,9 C 15,0 C 47 % 1014,7 hPa 0,0 l/m 2 min 0 min 612 W/m 19,3 km/h (3 Bft) 97,87 %
13.03.2022 11:40 13,6 C 19,4 C 15,6 C 47 % 1014,7 hPa 0,0 l/m 2 min 0 min 614 W/m 16,1 km/h (3 Bft) 97,87 %
13.03.2022 11:42 13,7 C 18,9 C 15,0 C 46 % 1014,7 hPa 0,0 l/m 2 min 0 min 616 W/m 22,5 km/h (4 Bft) 95,74 %
13.03.2022 11:44 13,8 C 18,9 C 14,4 C 46 % 1014,7 hPa 0,0 l/m 2 min 0 min 618 W/m 22,5 km/h (4 Bft) 97,87 %
13.03.2022 11:46 13,8 C 18,9 C 13,9 C 46 % 1014,6 hPa 0,0 l/m 2 min 0 min 622 W/m 19,3 km/h (3 Bft) 95,74 %
13.03.2022 11:48 13,8 C 18,3 C 13,9 C 46 % 1014,6 hPa 0,0 l/m 2 min 0 min 626 W/m 19,3 km/h (3 Bft) 97,83 %
13.03.2022 11:50 13,8 C 18,3 C 13,3 C 46 % 1014,6 hPa 0,0 l/m 2 min 0 min 629 W/m 22,5 km/h (4 Bft) 97,87 %
13.03.2022 11:52 13,8 C 18,3 C 12,8 C 46 % 1014,6 hPa 0,0 l/m 2 min 0 min 630 W/m 16,1 km/h (3 Bft) 97,87 %
13.03.2022 11:54 13,8 C 17,8 C 12,8 C 46 % 1014,6 hPa 0,0 l/m 2 min 0 min 631 W/m 19,3 km/h (3 Bft) 97,87 %
13.03.2022 11:56 13,9 C 17,2 C 12,8 C 47 % 1014,6 hPa 0,0 l/m 2 min 0 min 633 W/m 22,5 km/h (4 Bft) 97,87 %
13.03.2022 11:58 13,9 C 17,2 C 12,2 C 47 % 1014,6 hPa 0,0 l/m 2 min 0 min 602 W/m 16,1 km/h (3 Bft) 97,87 %
13.03.2022 12:00 13,9 C 16,7 C 12,2 C 46 % 1014,5 hPa 0,0 l/m 2 min 0 min 606 W/m 22,5 km/h (4 Bft) 97,83 %
13.03.2022 12:02 13,9 C 16,1 C 12,2 C 46 % 1014,6 hPa 0,0 l/m 2 min 0 min 610 W/m 19,3 km/h (3 Bft) 97,87 %
13.03.2022 12:04 13,9 C 15,6 C 12,2 C 46 % 1014,5 hPa 0,0 l/m 2 min 0 min 457 W/m 22,5 km/h (4 Bft) 95,74 %
13.03.2022 12:08 14,0 C 15,0 C 12,8 C 47 % 1014,5 hPa 0,0 l/m 4 min 0 min 431 W/m 19,3 km/h (3 Bft) 97,87 %
13.03.2022 12:10 14,1 C 15,0 C 12,8 C 47 % 1014,5 hPa 0,0 l/m 2 min 0 min 405 W/m 19,3 km/h (3 Bft) 97,87 %
13.03.2022 12:12 14,1 C 14,4 C 12,2 C 47 % 1014,5 hPa 0,0 l/m 2 min 0 min 342 W/m 25,7 km/h (4 Bft) 97,83 %
13.03.2022 12:14 14,2 C 15,0 C 11,7 C 47 % 1014,5 hPa 0,0 l/m 2 min 0 min 416 W/m 25,7 km/h (4 Bft) 95,74 %
13.03.2022 12:16 14,2 C 15,0 C 11,7 C 48 % 1014,5 hPa 0,0 l/m 2 min 0 min 294 W/m 19,3 km/h (3 Bft) 100,00 %
13.03.2022 12:18 14,3 C 15,0 C 11,7 C 48 % 1014,4 hPa 0,0 l/m 2 min 0 min 321 W/m 22,5 km/h (4 Bft) 100,00 %
13.03.2022 12:20 14,3 C 15,0 C 12,2 C 48 % 1014,4 hPa 0,0 l/m 2 min 0 min 354 W/m 22,5 km/h (4 Bft) 100,00 %
13.03.2022 12:22 14,3 C 15,0 C 12,2 C 48 % 1014,4 hPa 0,0 l/m 2 min 0 min 544 W/m 19,3 km/h (3 Bft) 97,87 %
13.03.2022 12:24 14,3 C 15,6 C 12,8 C 48 % 1014,3 hPa 0,0 l/m 2 min 0 min 385 W/m 29,0 km/h (5 Bft) 100,00 %
13.03.2022 12:26 14,4 C 15,6 C 12,8 C 48 % 1014,3 hPa 0,0 l/m 2 min 0 min 383 W/m 25,7 km/h (4 Bft) 97,87 %
13.03.2022 12:28 14,4 C 15,6 C 12,8 C 49 % 1014,3 hPa 0,0 l/m 2 min 0 min 590 W/m 22,5 km/h (4 Bft) 97,87 %
13.03.2022 12:30 14,5 C 16,1 C 12,8 C 49 % 1014,2 hPa 0,0 l/m 2 min 0 min 650 W/m 19,3 km/h (3 Bft) 97,87 %
13.03.2022 12:32 14,6 C 16,7 C 12,8 C 49 % 1014,2 hPa 0,0 l/m 2 min 0 min 653 W/m 16,1 km/h (3 Bft) 95,74 %
13.03.2022 12:34 14,7 C 16,7 C 12,8 C 49 % 1014,2 hPa 0,0 l/m 2 min 0 min 656 W/m 25,7 km/h (4 Bft) 97,87 %
13.03.2022 12:36 14,8 C 17,8 C 12,8 C 49 % 1014,2 hPa 0,0 l/m 2 min 0 min 656 W/m 16,1 km/h (3 Bft) 95,65 %
13.03.2022 12:38 15,0 C 17,8 C 12,8 C 49 % 1014,2 hPa 0,0 l/m 2 min 0 min 656 W/m 19,3 km/h (3 Bft) 97,87 %
13.03.2022 12:40 15,1 C 17,8 C 12,8 C 49 % 1014,1 hPa 0,0 l/m 2 min 0 min 656 W/m 25,7 km/h (4 Bft) 97,87 %
13.03.2022 12:42 15,2 C 18,3 C 12,2 C 49 % 1014,1 hPa 0,0 l/m 2 min 0 min 656 W/m 19,3 km/h (3 Bft) 93,62 %
13.03.2022 12:44 15,3 C 18,9 C 12,2 C 49 % 1014,1 hPa 0,0 l/m 2 min 0 min 656 W/m 25,7 km/h (4 Bft) 97,87 %
13.03.2022 12:46 15,4 C 19,4 C 12,2 C 49 % 1014,1 hPa 0,0 l/m 2 min 0 min 656 W/m 22,5 km/h (4 Bft) 97,83 %
13.03.2022 12:48 15,5 C 20,0 C 11,7 C 47 % 1014,1 hPa 0,0 l/m 2 min 0 min 655 W/m 19,3 km/h (3 Bft) 97,87 %
13.03.2022 12:50 15,6 C 20,6 C 11,7 C 47 % 1014,1 hPa 0,0 l/m 2 min 0 min 656 W/m 16,1 km/h (3 Bft) 97,87 %
13.03.2022 12:52 15,7 C 20,6 C 11,7 C 47 % 1014,0 hPa 0,0 l/m 2 min 0 min 656 W/m 25,7 km/h (4 Bft) 97,87 %
13.03.2022 12:54 15,7 C 21,1 C 11,7 C 47 % 1014,0 hPa 0,0 l/m 2 min 0 min 656 W/m 16,1 km/h (3 Bft) 97,87 %
13.03.2022 12:56 15,7 C 21,1 C 11,7 C 47 % 1014,0 hPa 0,0 l/m 2 min 0 min 655 W/m 19,3 km/h (3 Bft) 97,87 %
13.03.2022 12:58 15,8 C 22,2 C 11,7 C 48 % 1013,9 hPa 0,0 l/m 2 min 0 min 656 W/m 16,1 km/h (3 Bft) 97,83 %
13.03.2022 13:00 15,9 C 22,2 C 11,7 C 47 % 1013,8 hPa 0,0 l/m 2 min 0 min 655 W/m 16,1 km/h (3 Bft) 97,87 %
13.03.2022 13:02 16,0 C 22,2 C 11,7 C 47 % 1013,8 hPa 0,0 l/m 2 min 0 min 655 W/m 19,3 km/h (3 Bft) 100,00 %
13.03.2022 13:04 16,1 C 22,2 C 11,7 C 47 % 1013,7 hPa 0,0 l/m 2 min 0 min 650 W/m 22,5 km/h (4 Bft) 100,00 %
13.03.2022 13:06 16,1 C 22,8 C 12,2 C 48 % 1013,8 hPa 0,0 l/m 2 min 0 min 652 W/m 25,7 km/h (4 Bft) 97,87 %
13.03.2022 13:08 16,2 C 22,2 C 12,2 C 48 % 1013,7 hPa 0,0 l/m 2 min 0 min 653 W/m 25,7 km/h (4 Bft) 100,00 %
13.03.2022 13:10 16,2 C 21,7 C 11,7 C 48 % 1013,6 hPa 0,0 l/m 2 min 0 min 655 W/m 29,0 km/h (5 Bft) 100,00 %
13.03.2022 13:12 16,3 C 22,2 C 12,2 C 48 % 1013,6 hPa 0,0 l/m 2 min 0 min 655 W/m 25,7 km/h (4 Bft) 100,00 %
13.03.2022 13:14 16,3 C 23,3 C 12,2 C 48 % 1013,6 hPa 0,0 l/m 2 min 0 min 653 W/m 22,5 km/h (4 Bft) 100,00 %
13.03.2022 13:16 16,4 C 23,3 C 12,2 C 48 % 1013,6 hPa 0,0 l/m 2 min 0 min 652 W/m 22,5 km/h (4 Bft) 100,00 %
13.03.2022 13:18 16,6 C 23,3 C 12,2 C 48 % 1013,6 hPa 0,0 l/m 2 min 0 min 649 W/m 19,3 km/h (3 Bft) 100,00 %
13.03.2022 13:20 16,6 C 22,8 C 12,2 C 48 % 1013,6 hPa 0,0 l/m 2 min 0 min 646 W/m 25,7 km/h (4 Bft) 100,00 %
13.03.2022 13:22 16,7 C 22,8 C 12,2 C 47 % 1013,6 hPa 0,0 l/m 2 min 0 min 644 W/m 19,3 km/h (3 Bft) 100,00 %
13.03.2022 13:24 16,7 C 22,8 C 12,2 C 47 % 1013,5 hPa 0,0 l/m 2 min 0 min 643 W/m 22,5 km/h (4 Bft) 97,87 %
13.03.2022 13:26 16,7 C 22,8 C 12,2 C 48 % 1013,5 hPa 0,0 l/m 2 min 0 min 642 W/m 25,7 km/h (4 Bft) 100,00 %
13.03.2022 13:28 16,7 C 22,2 C 12,2 C 48 % 1013,5 hPa 0,0 l/m 2 min 0 min 642 W/m 25,7 km/h (4 Bft) 97,87 %
13.03.2022 13:30 16,7 C 21,7 C 12,2 C 47 % 1013,4 hPa 0,0 l/m 2 min 0 min 640 W/m 32,2 km/h (5 Bft) 100,00 %
13.03.2022 13:32 16,7 C 22,2 C 12,2 C 48 % 1013,4 hPa 0,0 l/m 2 min 0 min 636 W/m 22,5 km/h (4 Bft) 100,00 %
13.03.2022 13:34 16,8 C 21,7 C 12,2 C 48 % 1013,3 hPa 0,0 l/m 2 min 0 min 633 W/m 25,7 km/h (4 Bft) 100,00 %
13.03.2022 13:36 16,8 C 22,2 C 12,2 C 48 % 1013,4 hPa 0,0 l/m 2 min 0 min 629 W/m 22,5 km/h (4 Bft) 100,00 %
13.03.2022 13:38 16,9 C 22,2 C 12,2 C 48 % 1013,4 hPa 0,0 l/m 2 min 0 min 628 W/m 19,3 km/h (3 Bft) 97,87 %
13.03.2022 13:40 16,9 C 22,8 C 12,2 C 48 % 1013,3 hPa 0,0 l/m 2 min 0 min 626 W/m 22,5 km/h (4 Bft) 100,00 %
13.03.2022 13:42 16,9 C 22,2 C 12,2 C 48 % 1013,3 hPa 0,0 l/m 2 min 0 min 623 W/m 29,0 km/h (5 Bft) 100,00 %
13.03.2022 13:44 16,9 C 22,2 C 12,2 C 48 % 1013,3 hPa 0,0 l/m 2 min 0 min 621 W/m 25,7 km/h (4 Bft) 100,00 %
13.03.2022 13:46 17,0 C 22,8 C 12,2 C 48 % 1013,4 hPa 0,0 l/m 2 min 0 min 617 W/m 25,7 km/h (4 Bft) 97,83 %
13.03.2022 13:48 17,1 C 22,2 C 12,8 C 47 % 1013,4 hPa 0,0 l/m 2 min 0 min 618 W/m 25,7 km/h (4 Bft) 100,00 %
13.03.2022 13:50 17,1 C 22,2 C 12,2 C 47 % 1013,4 hPa 0,0 l/m 2 min 0 min 615 W/m 22,5 km/h (4 Bft) 97,87 %
13.03.2022 13:52 17,1 C 22,8 C 12,2 C 47 % 1013,3 hPa 0,0 l/m 2 min 0 min 612 W/m 25,7 km/h (4 Bft) 93,62 %
13.03.2022 13:54 17,2 C 22,8 C 12,2 C 47 % 1013,4 hPa 0,0 l/m 2 min 0 min 610 W/m 25,7 km/h (4 Bft) 97,87 %
13.03.2022 13:56 17,2 C 22,2 C 12,2 C 47 % 1013,3 hPa 0,0 l/m 2 min 0 min 605 W/m 22,5 km/h (4 Bft) 95,65 %
13.03.2022 13:58 17,2 C 21,7 C 12,2 C 47 % 1013,3 hPa 0,0 l/m 2 min 0 min 604 W/m 29,0 km/h (5 Bft) 97,87 %
13.03.2022 14:00 17,2 C 22,8 C 12,8 C 47 % 1013,3 hPa 0,0 l/m 2 min 0 min 600 W/m 22,5 km/h (4 Bft) 100,00 %
13.03.2022 14:02 17,3 C 22,8 C 12,8 C 47 % 1013,3 hPa 0,0 l/m 2 min 0 min 601 W/m 25,7 km/h (4 Bft) 97,87 %
13.03.2022 14:04 17,3 C 22,2 C 12,8 C 47 % 1013,3 hPa 0,0 l/m 2 min 0 min 599 W/m 22,5 km/h (4 Bft) 97,87 %
13.03.2022 14:06 17,4 C 22,8 C 12,8 C 47 % 1013,2 hPa 0,0 l/m 2 min 0 min 599 W/m 22,5 km/h (4 Bft) 97,87 %
13.03.2022 14:08 17,5 C 22,8 C 12,8 C 47 % 1013,2 hPa 0,0 l/m 2 min 0 min 598 W/m 22,5 km/h (4 Bft) 97,83 %
13.03.2022 14:10 17,6 C 22,8 C 12,8 C 47 % 1013,2 hPa 0,0 l/m 2 min 0 min 595 W/m 19,3 km/h (3 Bft) 95,74 %
13.03.2022 14:12 17,6 C 22,2 C 12,8 C 46 % 1013,2 hPa 0,0 l/m 2 min 0 min 593 W/m 32,2 km/h (5 Bft) 95,74 %
13.03.2022 14:14 17,6 C 22,2 C 12,8 C 46 % 1013,2 hPa 0,0 l/m 2 min 0 min 589 W/m 22,5 km/h (4 Bft) 93,62 %
13.03.2022 14:16 17,7 C 22,2 C 12,8 C 47 % 1013,1 hPa 0,0 l/m 2 min 0 min 587 W/m 19,3 km/h (3 Bft) 95,74 %
13.03.2022 14:18 17,7 C 22,2 C 12,8 C 47 % 1013,2 hPa 0,0 l/m 2 min 0 min 586 W/m 19,3 km/h (3 Bft) 95,74 %
13.03.2022 14:20 17,8 C 22,2 C 12,8 C 47 % 1013,2 hPa 0,0 l/m 2 min 0 min 582 W/m 19,3 km/h (3 Bft) 95,65 %
13.03.2022 14:22 17,8 C 21,7 C 12,8 C 46 % 1013,2 hPa 0,0 l/m 2 min 0 min 580 W/m 22,5 km/h (4 Bft) 95,74 %
13.03.2022 14:24 17,8 C 21,7 C 12,8 C 47 % 1013,2 hPa 0,0 l/m 2 min 0 min 578 W/m 19,3 km/h (3 Bft) 93,62 %
13.03.2022 14:26 17,8 C 22,2 C 12,8 C 47 % 1013,2 hPa 0,0 l/m 2 min 0 min 574 W/m 19,3 km/h (3 Bft) 95,74 %
13.03.2022 14:28 17,8 C 22,8 C 12,8 C 46 % 1013,2 hPa 0,0 l/m 2 min 0 min 569 W/m 19,3 km/h (3 Bft) 95,74 %
13.03.2022 14:30 17,9 C 21,7 C 12,8 C 46 % 1013,2 hPa 0,0 l/m 2 min 0 min 565 W/m 29,0 km/h (5 Bft) 91,49 %
13.03.2022 14:32 17,9 C 21,7 C 12,8 C 46 % 1013,2 hPa 0,0 l/m 2 min 0 min 561 W/m 19,3 km/h (3 Bft) 93,48 %
13.03.2022 14:34 17,9 C 22,2 C 12,8 C 46 % 1013,2 hPa 0,0 l/m 2 min 0 min 558 W/m 19,3 km/h (3 Bft) 93,62 %
13.03.2022 14:36 17,9 C 22,2 C 12,8 C 47 % 1013,1 hPa 0,0 l/m 2 min 0 min 554 W/m 19,3 km/h (3 Bft) 93,62 %
13.03.2022 14:38 18,0 C 22,2 C 12,8 C 46 % 1013,1 hPa 0,0 l/m 2 min 0 min 553 W/m 19,3 km/h (3 Bft) 93,62 %
13.03.2022 14:40 18,1 C 22,8 C 13,3 C 47 % 1013,1 hPa 0,0 l/m 2 min 0 min 548 W/m 12,9 km/h (3 Bft) 93,62 %
13.03.2022 14:42 18,1 C 23,3 C 13,3 C 46 % 1013,1 hPa 0,0 l/m 2 min 0 min 545 W/m 22,5 km/h (4 Bft) 95,65 %
13.03.2022 14:44 18,1 C 22,8 C 13,3 C 46 % 1013,1 hPa 0,0 l/m 2 min 0 min 543 W/m 22,5 km/h (4 Bft) 95,74 %
13.03.2022 14:46 18,1 C 22,2 C 13,3 C 46 % 1013,1 hPa 0,0 l/m 2 min 0 min 540 W/m 19,3 km/h (3 Bft) 95,74 %
13.03.2022 14:48 18,2 C 22,2 C 13,3 C 46 % 1013,1 hPa 0,0 l/m 2 min 0 min 538 W/m 16,1 km/h (3 Bft) 95,74 %
13.03.2022 14:50 18,2 C 21,1 C 13,3 C 46 % 1013,0 hPa 0,0 l/m 2 min 0 min 535 W/m 19,3 km/h (3 Bft) 95,74 %
13.03.2022 14:52 18,2 C 21,1 C 13,3 C 46 % 1012,9 hPa 0,0 l/m 2 min 0 min 536 W/m 19,3 km/h (3 Bft) 95,74 %
13.03.2022 14:54 18,2 C 21,7 C 13,3 C 46 % 1013,0 hPa 0,0 l/m 2 min 0 min 528 W/m 22,5 km/h (4 Bft) 95,65 %
13.03.2022 14:56 18,2 C 22,2 C 13,3 C 47 % 1013,0 hPa 0,0 l/m 2 min 0 min 526 W/m 22,5 km/h (4 Bft) 95,74 %
13.03.2022 14:58 18,2 C 22,2 C 13,3 C 46 % 1013,0 hPa 0,0 l/m 2 min 0 min 530 W/m 19,3 km/h (3 Bft) 97,87 %
13.03.2022 15:00 18,3 C 21,7 C 13,3 C 46 % 1013,0 hPa 0,0 l/m 2 min 0 min 490 W/m 22,5 km/h (4 Bft) 95,74 %
13.03.2022 15:02 18,2 C 21,7 C 13,3 C 46 % 1013,1 hPa 0,0 l/m 2 min 0 min 491 W/m 25,7 km/h (4 Bft) 95,74 %
13.03.2022 15:04 18,2 C 21,7 C 13,3 C 46 % 1013,0 hPa 0,0 l/m 2 min 0 min 486 W/m 29,0 km/h (5 Bft) 97,87 %
13.03.2022 15:06 18,2 C 21,7 C 13,3 C 46 % 1013,0 hPa 0,0 l/m 2 min 0 min 476 W/m 25,7 km/h (4 Bft) 97,83 %
13.03.2022 15:08 18,2 C 21,1 C 13,3 C 46 % 1013,0 hPa 0,0 l/m 2 min 0 min 497 W/m 19,3 km/h (3 Bft) 97,87 %
13.03.2022 15:10 18,2 C 20,6 C 13,3 C 46 % 1013,0 hPa 0,0 l/m 2 min 0 min 505 W/m 22,5 km/h (4 Bft) 97,87 %
13.03.2022 15:12 18,2 C 20,6 C 13,3 C 46 % 1013,0 hPa 0,0 l/m 2 min 0 min 508 W/m 22,5 km/h (4 Bft) 97,87 %
13.03.2022 15:14 18,2 C 21,1 C 13,3 C 46 % 1013,0 hPa 0,0 l/m 2 min 0 min 521 W/m 12,9 km/h (3 Bft) 97,87 %
13.03.2022 15:16 18,2 C 19,4 C 13,3 C 46 % 1013,0 hPa 0,0 l/m 2 min 0 min 264 W/m 25,7 km/h (4 Bft) 97,87 %
13.03.2022 15:18 18,2 C 18,3 C 13,3 C 46 % 1013,0 hPa 0,0 l/m 0 min 0 min 93 W/m 19,3 km/h (3 Bft) 100,00 %
13.03.2022 15:20 18,1 C 17,8 C 12,8 C 46 % 1012,9 hPa 0,0 l/m 0 min 0 min 92 W/m 25,7 km/h (4 Bft) 100,00 %
13.03.2022 15:22 17,9 C 17,2 C 12,8 C 46 % 1013,0 hPa 0,0 l/m 0 min 0 min 96 W/m 25,7 km/h (4 Bft) 100,00 %
13.03.2022 15:24 17,8 C 16,7 C 12,2 C 46 % 1013,0 hPa 0,0 l/m 0 min 0 min 94 W/m 29,0 km/h (5 Bft) 100,00 %
13.03.2022 15:26 17,6 C 16,7 C 12,2 C 47 % 1013,0 hPa 0,0 l/m 0 min 0 min 100 W/m 16,1 km/h (3 Bft) 100,00 %
13.03.2022 15:28 17,4 C 16,7 C 12,2 C 47 % 1013,0 hPa 0,0 l/m 0 min 0 min 113 W/m 19,3 km/h (3 Bft) 100,00 %
13.03.2022 15:30 17,3 C 16,7 C 11,7 C 47 % 1013,0 hPa 0,0 l/m 0 min 0 min 99 W/m 12,9 km/h (3 Bft) 97,83 %
13.03.2022 15:32 17,2 C 16,1 C 11,7 C 47 % 1012,9 hPa 0,0 l/m 0 min 0 min 91 W/m 19,3 km/h (3 Bft) 100,00 %
13.03.2022 15:34 17,1 C 16,1 C 11,7 C 48 % 1012,9 hPa 0,0 l/m 0 min 0 min 89 W/m 22,5 km/h (4 Bft) 100,00 %
13.03.2022 15:36 16,9 C 16,1 C 11,7 C 48 % 1012,9 hPa 0,0 l/m 0 min 0 min 98 W/m 25,7 km/h (4 Bft) 100,00 %
13.03.2022 15:38 16,8 C 16,7 C 11,7 C 48 % 1013,0 hPa 0,0 l/m 0 min 0 min 115 W/m 12,9 km/h (3 Bft) 100,00 %
13.03.2022 15:40 16,7 C 16,7 C 11,7 C 48 % 1013,0 hPa 0,0 l/m 0 min 0 min 105 W/m 19,3 km/h (3 Bft) 100,00 %
13.03.2022 15:42 16,7 C 16,1 C 11,7 C 48 % 1012,9 hPa 0,0 l/m 0 min 0 min 97 W/m 19,3 km/h (3 Bft) 100,00 %
13.03.2022 15:44 16,6 C 16,7 C 11,7 C 49 % 1012,9 hPa 0,0 l/m 0 min 0 min 112 W/m 16,1 km/h (3 Bft) 97,87 %
13.03.2022 15:46 16,6 C 16,7 C 11,7 C 49 % 1012,9 hPa 0,0 l/m 0 min 0 min 120 W/m 19,3 km/h (3 Bft) 100,00 %
13.03.2022 15:48 16,5 C 16,7 C 11,7 C 49 % 1013,0 hPa 0,0 l/m 0 min 0 min 126 W/m 19,3 km/h (3 Bft) 100,00 %
13.03.2022 15:50 16,5 C 16,7 C 11,7 C 49 % 1012,9 hPa 0,0 l/m 0 min 0 min 131 W/m 22,5 km/h (4 Bft) 100,00 %
13.03.2022 15:52 16,4 C 16,7 C 11,7 C 49 % 1012,9 hPa 0,0 l/m 0 min 0 min 157 W/m 22,5 km/h (4 Bft) 100,00 %
13.03.2022 15:54 16,4 C 16,7 C 11,7 C 50 % 1012,9 hPa 0,0 l/m 0 min 0 min 134 W/m 22,5 km/h (4 Bft) 100,00 %
13.03.2022 15:56 16,4 C 16,7 C 11,7 C 49 % 1012,9 hPa 0,0 l/m 0 min 0 min 126 W/m 16,1 km/h (3 Bft) 100,00 %
13.03.2022 15:58 16,4 C 16,7 C 11,7 C 50 % 1012,9 hPa 0,0 l/m 0 min 0 min 123 W/m 19,3 km/h (3 Bft) 100,00 %
13.03.2022 16:00 16,4 C 16,7 C 11,7 C 50 % 1012,9 hPa 0,0 l/m 0 min 0 min 129 W/m 16,1 km/h (3 Bft) 100,00 %
13.03.2022 16:02 16,4 C 17,2 C 11,7 C 49 % 1012,9 hPa 0,0 l/m 0 min 0 min 168 W/m 16,1 km/h (3 Bft) 100,00 %
13.03.2022 16:04 16,4 C 17,2 C 11,7 C 49 % 1012,9 hPa 0,0 l/m 0 min 0 min 153 W/m 12,9 km/h (3 Bft) 100,00 %
13.03.2022 16:06 16,4 C 17,2 C 11,7 C 50 % 1012,9 hPa 0,0 l/m 0 min 0 min 137 W/m 16,1 km/h (3 Bft) 97,83 %
13.03.2022 16:08 16,4 C 17,2 C 11,7 C 50 % 1012,9 hPa 0,0 l/m 0 min 0 min 150 W/m 16,1 km/h (3 Bft) 100,00 %
13.03.2022 16:10 16,5 C 17,2 C 11,7 C 49 % 1012,9 hPa 0,0 l/m 0 min 0 min 160 W/m 12,9 km/h (3 Bft) 100,00 %
13.03.2022 16:12 16,5 C 18,9 C 11,7 C 50 % 1012,9 hPa 0,0 l/m 2 min 0 min 264 W/m 19,3 km/h (3 Bft) 100,00 %
13.03.2022 16:14 16,6 C 20,0 C 11,7 C 50 % 1012,9 hPa 0,0 l/m 2 min 0 min 403 W/m 22,5 km/h (4 Bft) 100,00 %
13.03.2022 16:16 16,7 C 20,6 C 12,2 C 49 % 1012,9 hPa 0,0 l/m 2 min 0 min 381 W/m 25,7 km/h (4 Bft) 100,00 %
13.03.2022 16:18 16,8 C 21,1 C 12,2 C 49 % 1012,8 hPa 0,0 l/m 2 min 0 min 362 W/m 29,0 km/h (5 Bft) 100,00 %
13.03.2022 16:20 16,9 C 21,1 C 12,2 C 49 % 1012,8 hPa 0,0 l/m 2 min 0 min 348 W/m 29,0 km/h (5 Bft) 100,00 %
13.03.2022 16:22 17,1 C 21,1 C 12,2 C 48 % 1012,9 hPa 0,0 l/m 2 min 0 min 336 W/m 22,5 km/h (4 Bft) 100,00 %
13.03.2022 16:24 17,2 C 21,1 C 12,2 C 49 % 1012,9 hPa 0,0 l/m 2 min 0 min 327 W/m 25,7 km/h (4 Bft) 97,87 %
13.03.2022 16:26 17,3 C 21,7 C 12,2 C 48 % 1012,9 hPa 0,0 l/m 2 min 0 min 308 W/m 19,3 km/h (3 Bft) 100,00 %
13.03.2022 16:28 17,3 C 21,1 C 12,2 C 48 % 1012,9 hPa 0,0 l/m 2 min 0 min 300 W/m 22,5 km/h (4 Bft) 100,00 %
13.03.2022 16:30 17,4 C 19,4 C 12,2 C 47 % 1012,9 hPa 0,0 l/m 2 min 0 min 295 W/m 22,5 km/h (4 Bft) 100,00 %
13.03.2022 16:32 17,4 C 18,3 C 12,2 C 47 % 1012,9 hPa 0,0 l/m 2 min 0 min 290 W/m 16,1 km/h (3 Bft) 97,87 %
13.03.2022 16:34 17,5 C 17,8 C 12,2 C 47 % 1012,9 hPa 0,0 l/m 2 min 0 min 270 W/m 16,1 km/h (3 Bft) 97,87 %
13.03.2022 16:36 17,5 C 17,2 C 12,2 C 48 % 1012,9 hPa 0,0 l/m 2 min 0 min 250 W/m 25,7 km/h (4 Bft) 100,00 %
13.03.2022 16:38 17,5 C 17,2 C 12,2 C 48 % 1013,1 hPa 0,0 l/m 2 min 0 min 286 W/m 19,3 km/h (3 Bft) 100,00 %
13.03.2022 16:40 17,5 C 17,2 C 12,2 C 48 % 1012,9 hPa 0,0 l/m 2 min 0 min 295 W/m 22,5 km/h (4 Bft) 100,00 %
13.03.2022 16:42 17,5 C 16,7 C 12,2 C 48 % 1013,0 hPa 0,0 l/m 2 min 0 min 289 W/m 29,0 km/h (5 Bft) 97,83 %
13.03.2022 16:44 17,5 C 16,7 C 12,2 C 48 % 1013,0 hPa 0,0 l/m 2 min 0 min 279 W/m 25,7 km/h (4 Bft) 97,87 %
13.03.2022 16:46 17,4 C 16,7 C 12,2 C 48 % 1013,0 hPa 0,0 l/m 2 min 0 min 252 W/m 22,5 km/h (4 Bft) 97,87 %
13.03.2022 16:48 17,4 C 16,7 C 12,2 C 48 % 1012,9 hPa 0,0 l/m 2 min 0 min 189 W/m 19,3 km/h (3 Bft) 97,87 %
13.03.2022 16:50 17,4 C 16,7 C 12,2 C 47 % 1012,9 hPa 0,0 l/m 2 min 0 min 168 W/m 22,5 km/h (4 Bft) 95,74 %
13.03.2022 16:52 17,3 C 16,7 C 12,2 C 48 % 1013,0 hPa 0,0 l/m 2 min 0 min 199 W/m 25,7 km/h (4 Bft) 95,74 %
13.03.2022 16:54 17,3 C 16,7 C 12,2 C 48 % 1013,0 hPa 0,0 l/m 2 min 0 min 218 W/m 19,3 km/h (3 Bft) 95,65 %
13.03.2022 16:56 17,3 C 16,7 C 11,7 C 48 % 1013,1 hPa 0,0 l/m 2 min 0 min 164 W/m 25,7 km/h (4 Bft) 93,62 %
13.03.2022 16:58 17,2 C 16,7 C 11,7 C 48 % 1013,1 hPa 0,0 l/m 2 min 0 min 120 W/m 19,3 km/h (3 Bft) 93,62 %
13.03.2022 17:00 17,2 C 16,7 C 11,7 C 48 % 1013,1 hPa 0,0 l/m 2 min 0 min 131 W/m 16,1 km/h (3 Bft) 91,49 %
13.03.2022 17:02 17,1 C 16,7 C 11,7 C 48 % 1013,1 hPa 0,0 l/m 2 min 0 min 124 W/m 19,3 km/h (3 Bft) 95,74 %
13.03.2022 17:04 17,1 C 16,1 C 11,7 C 48 % 1013,1 hPa 0,0 l/m 2 min 0 min 124 W/m 16,1 km/h (3 Bft) 93,62 %
13.03.2022 17:06 17,1 C 16,1 C 11,7 C 48 % 1013,1 hPa 0,0 l/m 0 min 0 min 84 W/m 22,5 km/h (4 Bft) 93,48 %
13.03.2022 17:08 17,0 C 16,1 C 11,7 C 48 % 1013,1 hPa 0,0 l/m 0 min 0 min 68 W/m 22,5 km/h (4 Bft) 93,62 %
13.03.2022 17:10 16,9 C 16,1 C 11,7 C 48 % 1013,1 hPa 0,0 l/m 0 min 0 min 63 W/m 19,3 km/h (3 Bft) 93,62 %
13.03.2022 17:12 16,9 C 16,1 C 11,7 C 48 % 1013,1 hPa 0,0 l/m 0 min 0 min 80 W/m 16,1 km/h (3 Bft) 93,62 %
13.03.2022 17:14 16,8 C 16,1 C 11,7 C 49 % 1013,2 hPa 0,0 l/m 0 min 0 min 99 W/m 16,1 km/h (3 Bft) 93,62 %
13.03.2022 17:16 16,8 C 15,6 C 11,7 C 49 % 1013,2 hPa 0,0 l/m 0 min 0 min 54 W/m 22,5 km/h (4 Bft) 91,49 %
13.03.2022 17:18 16,8 C 15,6 C 11,1 C 49 % 1013,2 hPa 0,0 l/m 0 min 0 min 50 W/m 12,9 km/h (3 Bft) 93,48 %
13.03.2022 17:20 16,7 C 15,6 C 11,1 C 49 % 1013,3 hPa 0,0 l/m 0 min 0 min 50 W/m 16,1 km/h (3 Bft) 91,49 %
13.03.2022 17:22 16,6 C 15,6 C 11,1 C 50 % 1013,3 hPa 0,0 l/m 0 min 0 min 48 W/m 12,9 km/h (3 Bft) 93,62 %
13.03.2022 17:24 16,6 C 15,6 C 11,1 C 50 % 1013,3 hPa 0,0 l/m 0 min 0 min 46 W/m 16,1 km/h (3 Bft) 93,62 %
13.03.2022 17:26 16,5 C 15,6 C 11,1 C 49 % 1013,2 hPa 0,0 l/m 0 min 0 min 46 W/m 16,1 km/h (3 Bft) 93,62 %
13.03.2022 17:28 16,4 C 15,6 C 11,1 C 49 % 1013,2 hPa 0,0 l/m 0 min 0 min 47 W/m 19,3 km/h (3 Bft) 93,48 %
13.03.2022 17:30 16,3 C 15,6 C 11,1 C 50 % 1013,2 hPa 0,0 l/m 0 min 0 min 45 W/m 19,3 km/h (3 Bft) 97,87 %
13.03.2022 17:32 16,3 C 15,6 C 11,1 C 50 % 1013,2 hPa 0,0 l/m 0 min 0 min 40 W/m 16,1 km/h (3 Bft) 95,74 %
13.03.2022 17:34 16,3 C 15,0 C 11,1 C 50 % 1013,2 hPa 0,0 l/m 0 min 0 min 38 W/m 19,3 km/h (3 Bft) 95,74 %
13.03.2022 17:36 16,2 C 15,0 C 11,1 C 50 % 1013,2 hPa 0,0 l/m 0 min 0 min 34 W/m 19,3 km/h (3 Bft) 97,87 %
13.03.2022 17:38 16,2 C 15,0 C 11,1 C 50 % 1013,2 hPa 0,0 l/m 0 min 0 min 32 W/m 19,3 km/h (3 Bft) 100,00 %
13.03.2022 17:40 16,1 C 15,0 C 11,1 C 50 % 1013,2 hPa 0,0 l/m 0 min 0 min 30 W/m 25,7 km/h (4 Bft) 100,00 %
13.03.2022 17:42 16,1 C 15,0 C 11,1 C 50 % 1013,2 hPa 0,0 l/m 0 min 0 min 28 W/m 16,1 km/h (3 Bft) 100,00 %
13.03.2022 17:44 16,1 C 15,0 C 11,1 C 50 % 1013,2 hPa 0,0 l/m 0 min 0 min 28 W/m 22,5 km/h (4 Bft) 97,87 %
13.03.2022 17:46 16,0 C 15,0 C 11,1 C 50 % 1013,2 hPa 0,0 l/m 0 min 0 min 28 W/m 16,1 km/h (3 Bft) 100,00 %
13.03.2022 17:48 15,9 C 15,0 C 11,1 C 50 % 1013,2 hPa 0,0 l/m 0 min 0 min 26 W/m 25,7 km/h (4 Bft) 100,00 %
13.03.2022 17:50 15,9 C 15,0 C 11,1 C 50 % 1013,2 hPa 0,0 l/m 0 min 0 min 25 W/m 25,7 km/h (4 Bft) 100,00 %
13.03.2022 17:52 15,9 C 15,0 C 11,1 C 50 % 1013,3 hPa 0,0 l/m 0 min 0 min 22 W/m 22,5 km/h (4 Bft) 100,00 %
13.03.2022 17:54 15,8 C 15,0 C 10,6 C 50 % 1013,2 hPa 0,0 l/m 0 min 0 min 19 W/m 22,5 km/h (4 Bft) 100,00 %
13.03.2022 17:56 15,8 C 15,0 C 10,6 C 50 % 1013,3 hPa 0,0 l/m 0 min 0 min 16 W/m 16,1 km/h (3 Bft) 100,00 %
13.03.2022 17:58 15,8 C 15,0 C 10,6 C 51 % 1013,3 hPa 0,0 l/m 0 min 0 min 14 W/m 19,3 km/h (3 Bft) 100,00 %
13.03.2022 18:00 15,8 C 14,4 C 10,6 C 51 % 1013,3 hPa 0,0 l/m 0 min 0 min 12 W/m 16,1 km/h (3 Bft) 100,00 %
13.03.2022 18:02 15,7 C 14,4 C 10,6 C 51 % 1013,4 hPa 0,0 l/m 0 min 0 min 11 W/m 16,1 km/h (3 Bft) 100,00 %
13.03.2022 18:04 15,7 C 14,4 C 10,6 C 51 % 1013,4 hPa 0,0 l/m 0 min 0 min 11 W/m 12,9 km/h (3 Bft) 100,00 %
13.03.2022 18:08 15,6 C 14,4 C 10,6 C 51 % 1013,4 hPa 0,0 l/m 0 min 0 min 9 W/m 22,5 km/h (4 Bft) 98,94 %
13.03.2022 18:10 15,6 C 14,4 C 10,6 C 51 % 1013,4 hPa 0,0 l/m 0 min 0 min 7 W/m 22,5 km/h (4 Bft) 97,87 %
13.03.2022 18:12 15,6 C 14,4 C 10,6 C 51 % 1013,4 hPa 0,0 l/m 0 min 0 min 7 W/m 25,7 km/h (4 Bft) 100,00 %
13.03.2022 18:14 15,6 C 14,4 C 10,6 C 51 % 1013,4 hPa 0,0 l/m 0 min 0 min 7 W/m 25,7 km/h (4 Bft) 98,08 %
13.03.2022 18:16 15,6 C 14,4 C 10,6 C 51 % 1013,5 hPa 0,0 l/m 0 min 0 min 5 W/m 22,5 km/h (4 Bft) 100,00 %
13.03.2022 18:18 15,5 C 14,4 C 10,6 C 51 % 1013,5 hPa 0,0 l/m 0 min 0 min 5 W/m 19,3 km/h (3 Bft) 100,00 %
13.03.2022 18:20 15,5 C 14,4 C 10,6 C 51 % 1013,5 hPa 0,0 l/m 0 min 0 min 5 W/m 22,5 km/h (4 Bft) 100,00 %
13.03.2022 18:22 15,4 C 14,4 C 10,6 C 51 % 1013,5 hPa 0,0 l/m 0 min 0 min 4 W/m 12,9 km/h (3 Bft) 100,00 %
13.03.2022 18:24 15,4 C 14,4 C 10,6 C 51 % 1013,6 hPa 0,0 l/m 0 min 0 min 0 W/m 16,1 km/h (3 Bft) 100,00 %
13.03.2022 18:26 15,4 C 14,4 C 10,6 C 51 % 1013,6 hPa 0,0 l/m 0 min 0 min 0 W/m 19,3 km/h (3 Bft) 100,00 %
13.03.2022 18:28 15,4 C 14,4 C 10,6 C 51 % 1013,6 hPa 0,0 l/m 0 min 0 min 0 W/m 16,1 km/h (3 Bft) 100,00 %
13.03.2022 18:30 15,4 C 14,4 C 10,6 C 52 % 1013,7 hPa 0,0 l/m 0 min 0 min 0 W/m 22,5 km/h (4 Bft) 97,87 %
13.03.2022 18:32 15,3 C 14,4 C 10,6 C 51 % 1013,6 hPa 0,0 l/m 0 min 0 min 0 W/m 16,1 km/h (3 Bft) 97,87 %
13.03.2022 18:34 15,3 C 14,4 C 10,6 C 52 % 1013,7 hPa 0,0 l/m 0 min 0 min 0 W/m 12,9 km/h (3 Bft) 100,00 %
13.03.2022 18:36 15,3 C 14,4 C 10,6 C 52 % 1013,7 hPa 0,0 l/m 0 min 0 min 0 W/m 6,4 km/h (2 Bft) 97,87 %
13.03.2022 18:38 15,3 C 14,4 C 10,0 C 52 % 1013,8 hPa 0,0 l/m 0 min 0 min 0 W/m 12,9 km/h (3 Bft) 100,00 %
13.03.2022 18:40 15,2 C 14,4 C 10,0 C 52 % 1013,8 hPa 0,0 l/m 0 min 0 min 0 W/m 16,1 km/h (3 Bft) 100,00 %
13.03.2022 18:42 15,2 C 14,4 C 10,0 C 52 % 1013,9 hPa 0,0 l/m 0 min 0 min 0 W/m 12,9 km/h (3 Bft) 100,00 %
13.03.2022 18:44 15,2 C 14,4 C 10,0 C 52 % 1013,9 hPa 0,0 l/m 0 min 0 min 0 W/m 16,1 km/h (3 Bft) 100,00 %
13.03.2022 18:46 15,2 C 14,4 C 10,0 C 52 % 1013,9 hPa 0,0 l/m 0 min 0 min 0 W/m 16,1 km/h (3 Bft) 100,00 %
13.03.2022 18:48 15,2 C 13,9 C 10,0 C 52 % 1013,9 hPa 0,0 l/m 0 min 0 min 0 W/m 12,9 km/h (3 Bft) 100,00 %
13.03.2022 18:50 15,1 C 13,9 C 10,0 C 52 % 1014,0 hPa 0,0 l/m 0 min 0 min 0 W/m 9,7 km/h (2 Bft) 100,00 %
13.03.2022 18:52 15,1 C 13,9 C 10,0 C 52 % 1013,9 hPa 0,0 l/m 0 min 0 min 0 W/m 12,9 km/h (3 Bft) 100,00 %
13.03.2022 18:54 15,1 C 13,9 C 10,0 C 52 % 1014,0 hPa 0,0 l/m 0 min 0 min 0 W/m 19,3 km/h (3 Bft) 100,00 %
13.03.2022 18:56 15,1 C 13,9 C 10,0 C 52 % 1014,0 hPa 0,0 l/m 0 min 0 min 0 W/m 19,3 km/h (3 Bft) 100,00 %
13.03.2022 18:58 15,1 C 13,9 C 10,0 C 52 % 1014,1 hPa 0,0 l/m 0 min 0 min 0 W/m 9,7 km/h (2 Bft) 100,00 %
13.03.2022 19:00 15,0 C 13,9 C 10,0 C 53 % 1014,2 hPa 0,0 l/m 0 min 0 min 0 W/m 12,9 km/h (3 Bft) 100,00 %
13.03.2022 19:02 15,0 C 13,9 C 10,0 C 53 % 1014,2 hPa 0,0 l/m 0 min 0 min 0 W/m 6,4 km/h (2 Bft) 97,87 %
13.03.2022 19:04 14,9 C 13,9 C 10,0 C 53 % 1014,2 hPa 0,0 l/m 0 min 0 min 0 W/m 12,9 km/h (3 Bft) 95,74 %
13.03.2022 19:06 14,9 C 13,9 C 10,0 C 53 % 1014,2 hPa 0,0 l/m 0 min 0 min 0 W/m 12,9 km/h (3 Bft) 95,74 %
13.03.2022 19:08 14,9 C 13,9 C 10,0 C 53 % 1014,3 hPa 0,0 l/m 0 min 0 min 0 W/m 6,4 km/h (2 Bft) 97,87 %
13.03.2022 19:10 14,9 C 13,9 C 10,0 C 54 % 1014,3 hPa 0,0 l/m 0 min 0 min 0 W/m 12,9 km/h (3 Bft) 97,87 %
13.03.2022 19:12 14,9 C 13,9 C 10,0 C 54 % 1014,3 hPa 0,0 l/m 0 min 0 min 0 W/m 12,9 km/h (3 Bft) 93,48 %
13.03.2022 19:14 14,8 C 13,9 C 10,0 C 54 % 1014,3 hPa 0,0 l/m 0 min 0 min 0 W/m 12,9 km/h (3 Bft) 97,87 %
13.03.2022 19:16 14,8 C 13,9 C 9,4 C 55 % 1014,4 hPa 0,0 l/m 0 min 0 min 0 W/m 12,9 km/h (3 Bft) 97,87 %
13.03.2022 19:18 14,8 C 13,9 C 9,4 C 55 % 1014,4 hPa 0,0 l/m 0 min 0 min 0 W/m 12,9 km/h (3 Bft) 95,74 %
13.03.2022 19:20 14,8 C 13,9 C 10,0 C 55 % 1014,5 hPa 0,0 l/m 0 min 0 min 0 W/m 19,3 km/h (3 Bft) 97,87 %
13.03.2022 19:22 14,7 C 13,9 C 9,4 C 55 % 1014,6 hPa 0,0 l/m 0 min 0 min 0 W/m 12,9 km/h (3 Bft) 95,74 %
13.03.2022 19:24 14,7 C 13,9 C 9,4 C 56 % 1014,5 hPa 0,0 l/m 0 min 0 min 0 W/m 12,9 km/h (3 Bft) 95,65 %
13.03.2022 19:26 14,7 C 13,9 C 9,4 C 56 % 1014,6 hPa 0,0 l/m 0 min 0 min 0 W/m 12,9 km/h (3 Bft) 97,87 %
13.03.2022 19:28 14,7 C 13,9 C 9,4 C 56 % 1014,6 hPa 0,0 l/m 0 min 0 min 0 W/m 12,9 km/h (3 Bft) 93,62 %
13.03.2022 19:30 14,7 C 13,9 C 9,4 C 56 % 1014,7 hPa 0,0 l/m 0 min 0 min 0 W/m 12,9 km/h (3 Bft) 93,62 %
13.03.2022 19:32 14,7 C 13,9 C 9,4 C 57 % 1014,8 hPa 0,0 l/m 0 min 0 min 0 W/m 22,5 km/h (4 Bft) 91,49 %
13.03.2022 19:34 14,6 C 13,9 C 9,4 C 57 % 1014,7 hPa 0,0 l/m 0 min 0 min 0 W/m 16,1 km/h (3 Bft) 95,74 %
13.03.2022 19:36 14,6 C 13,9 C 9,4 C 57 % 1014,8 hPa 0,0 l/m 0 min 0 min 0 W/m 22,5 km/h (4 Bft) 95,65 %
13.03.2022 19:38 14,6 C 13,9 C 9,4 C 57 % 1014,8 hPa 0,0 l/m 0 min 0 min 0 W/m 16,1 km/h (3 Bft) 93,62 %
13.03.2022 19:40 14,6 C 13,9 C 10,0 C 57 % 1014,7 hPa 0,0 l/m 0 min 0 min 0 W/m 29,0 km/h (5 Bft) 95,74 %
13.03.2022 19:42 14,6 C 13,9 C 9,4 C 58 % 1014,8 hPa 0,0 l/m 0 min 0 min 0 W/m 25,7 km/h (4 Bft) 95,74 %
13.03.2022 19:44 14,6 C 13,9 C 9,4 C 58 % 1014,9 hPa 0,0 l/m 0 min 0 min 0 W/m 22,5 km/h (4 Bft) 95,74 %
13.03.2022 19:46 14,6 C 13,9 C 9,4 C 58 % 1014,9 hPa 0,0 l/m 0 min 0 min 0 W/m 29,0 km/h (5 Bft) 93,62 %
13.03.2022 19:48 14,6 C 13,9 C 9,4 C 58 % 1014,9 hPa 0,0 l/m 0 min 0 min 0 W/m 35,4 km/h (5 Bft) 97,83 %
13.03.2022 19:50 14,5 C 13,3 C 9,4 C 58 % 1014,9 hPa 0,0 l/m 0 min 0 min 0 W/m 16,1 km/h (3 Bft) 93,62 %
13.03.2022 19:52 14,5 C 13,3 C 9,4 C 58 % 1015,0 hPa 0,0 l/m 0 min 0 min 0 W/m 22,5 km/h (4 Bft) 95,74 %
13.03.2022 19:54 14,4 C 13,3 C 9,4 C 59 % 1015,0 hPa 0,0 l/m 0 min 0 min 0 W/m 19,3 km/h (3 Bft) 93,62 %
13.03.2022 19:56 14,3 C 13,3 C 9,4 C 59 % 1015,0 hPa 0,0 l/m 0 min 0 min 0 W/m 16,1 km/h (3 Bft) 93,62 %
13.03.2022 19:58 14,3 C 13,3 C 9,4 C 59 % 1015,0 hPa 0,0 l/m 0 min 0 min 0 W/m 12,9 km/h (3 Bft) 95,74 %
13.03.2022 20:00 14,3 C 13,3 C 9,4 C 60 % 1015,1 hPa 0,0 l/m 0 min 0 min 0 W/m 16,1 km/h (3 Bft) 95,65 %
13.03.2022 20:02 14,3 C 13,3 C 9,4 C 60 % 1015,1 hPa 0,0 l/m 0 min 0 min 0 W/m 19,3 km/h (3 Bft) 95,74 %
13.03.2022 20:04 14,3 C 13,3 C 9,4 C 60 % 1015,1 hPa 0,0 l/m 0 min 0 min 0 W/m 19,3 km/h (3 Bft) 95,74 %
13.03.2022 20:06 14,3 C 13,3 C 9,4 C 60 % 1015,2 hPa 0,0 l/m 0 min 0 min 0 W/m 19,3 km/h (3 Bft) 100,00 %
13.03.2022 20:08 14,3 C 13,3 C 9,4 C 61 % 1015,3 hPa 0,0 l/m 0 min 0 min 0 W/m 12,9 km/h (3 Bft) 97,44 %
13.03.2022 20:10 14,2 C 12,8 C 9,4 C 62 % 1015,2 hPa 0,0 l/m 0 min 0 min 0 W/m 29,0 km/h (5 Bft) 95,74 %
13.03.2022 20:12 14,1 C 12,8 C 9,4 C 62 % 1015,4 hPa 0,0 l/m 0 min 0 min 0 W/m 29,0 km/h (5 Bft) 95,74 %
13.03.2022 20:14 14,1 C 12,8 C 8,9 C 62 % 1015,3 hPa 0,0 l/m 0 min 0 min 0 W/m 25,7 km/h (4 Bft) 97,83 %
13.03.2022 20:16 14,0 C 12,8 C 8,9 C 63 % 1015,4 hPa 0,0 l/m 0 min 0 min 0 W/m 19,3 km/h (3 Bft) 97,87 %
13.03.2022 20:18 13,9 C 12,8 C 8,9 C 63 % 1015,4 hPa 0,0 l/m 0 min 0 min 0 W/m 19,3 km/h (3 Bft) 97,87 %
13.03.2022 20:20 13,9 C 12,8 C 8,9 C 63 % 1015,5 hPa 0,0 l/m 0 min 0 min 0 W/m 12,9 km/h (3 Bft) 100,00 %
13.03.2022 20:22 13,9 C 12,8 C 8,9 C 64 % 1015,5 hPa 0,0 l/m 0 min 0 min 0 W/m 19,3 km/h (3 Bft) 100,00 %
13.03.2022 20:24 13,8 C 12,8 C 8,9 C 64 % 1015,5 hPa 0,0 l/m 0 min 0 min 0 W/m 29,0 km/h (5 Bft) 100,00 %
13.03.2022 20:26 13,8 C 12,8 C 8,9 C 64 % 1015,6 hPa 0,0 l/m 0 min 0 min 0 W/m 22,5 km/h (4 Bft) 97,83 %
13.03.2022 20:28 13,7 C 12,8 C 8,9 C 65 % 1015,6 hPa 0,0 l/m 0 min 0 min 0 W/m 22,5 km/h (4 Bft) 100,00 %
13.03.2022 20:30 13,7 C 12,8 C 8,9 C 65 % 1015,6 hPa 0,0 l/m 0 min 0 min 0 W/m 19,3 km/h (3 Bft) 100,00 %
13.03.2022 20:32 13,6 C 12,8 C 8,9 C 65 % 1015,6 hPa 0,0 l/m 0 min 0 min 0 W/m 12,9 km/h (3 Bft) 100,00 %
13.03.2022 20:34 13,6 C 12,8 C 8,9 C 65 % 1015,7 hPa 0,0 l/m 0 min 0 min 0 W/m 22,5 km/h (4 Bft) 97,87 %
13.03.2022 20:36 13,6 C 12,8 C 8,9 C 65 % 1015,8 hPa 0,0 l/m 0 min 0 min 0 W/m 25,7 km/h (4 Bft) 100,00 %
13.03.2022 20:38 13,5 C 12,8 C 8,9 C 66 % 1015,8 hPa 0,0 l/m 0 min 0 min 0 W/m 38,6 km/h (5 Bft) 100,00 %
13.03.2022 20:40 13,5 C 12,8 C 8,9 C 66 % 1015,8 hPa 0,0 l/m 0 min 0 min 0 W/m 29,0 km/h (5 Bft) 97,87 %
13.03.2022 20:42 13,4 C 12,2 C 8,9 C 66 % 1015,9 hPa 0,0 l/m 0 min 0 min 0 W/m 22,5 km/h (4 Bft) 100,00 %
13.03.2022 20:44 13,4 C 12,2 C 8,9 C 66 % 1015,9 hPa 0,0 l/m 0 min 0 min 0 W/m 25,7 km/h (4 Bft) 100,00 %
13.03.2022 20:46 13,4 C 12,2 C 8,9 C 66 % 1015,9 hPa 0,0 l/m 0 min 0 min 0 W/m 19,3 km/h (3 Bft) 97,87 %
13.03.2022 20:48 13,3 C 12,2 C 8,9 C 66 % 1016,1 hPa 0,0 l/m 0 min 0 min 0 W/m 35,4 km/h (5 Bft) 100,00 %
13.03.2022 20:50 13,3 C 12,2 C 8,3 C 66 % 1015,9 hPa 0,0 l/m 0 min 0 min 0 W/m 25,7 km/h (4 Bft) 100,00 %
13.03.2022 20:52 13,3 C 12,2 C 8,3 C 66 % 1015,9 hPa 0,0 l/m 0 min 0 min 0 W/m 19,3 km/h (3 Bft) 100,00 %
13.03.2022 20:54 13,3 C 12,2 C 8,3 C 67 % 1015,9 hPa 0,0 l/m 0 min 0 min 0 W/m 12,9 km/h (3 Bft) 100,00 %
13.03.2022 20:56 13,2 C 12,2 C 8,3 C 67 % 1016,0 hPa 0,0 l/m 0 min 0 min 0 W/m 12,9 km/h (3 Bft) 97,87 %
13.03.2022 20:58 13,2 C 12,2 C 8,3 C 67 % 1016,0 hPa 0,0 l/m 0 min 0 min 0 W/m 19,3 km/h (3 Bft) 100,00 %
13.03.2022 21:00 13,1 C 12,2 C 8,3 C 67 % 1016,0 hPa 0,0 l/m 0 min 0 min 0 W/m 16,1 km/h (3 Bft) 97,87 %
13.03.2022 21:02 13,1 C 12,2 C 8,3 C 67 % 1016,1 hPa 0,0 l/m 0 min 0 min 0 W/m 19,3 km/h (3 Bft) 95,74 %
13.03.2022 21:04 13,1 C 12,2 C 8,3 C 67 % 1016,2 hPa 0,0 l/m 0 min 0 min 0 W/m 19,3 km/h (3 Bft) 97,87 %
13.03.2022 21:06 13,1 C 12,2 C 8,3 C 67 % 1016,2 hPa 0,0 l/m 0 min 0 min 0 W/m 22,5 km/h (4 Bft) 97,87 %
13.03.2022 21:08 13,1 C 12,2 C 8,3 C 68 % 1016,2 hPa 0,0 l/m 0 min 0 min 0 W/m 25,7 km/h (4 Bft) 97,87 %
13.03.2022 21:10 13,0 C 12,2 C 8,3 C 68 % 1016,3 hPa 0,0 l/m 0 min 0 min 0 W/m 51,5 km/h (7 Bft) 97,87 %
13.03.2022 21:12 13,0 C 12,2 C 8,3 C 68 % 1016,3 hPa 0,0 l/m 0 min 0 min 0 W/m 29,0 km/h (5 Bft) 97,83 %
13.03.2022 21:14 12,9 C 12,2 C 8,3 C 68 % 1016,2 hPa 0,0 l/m 0 min 0 min 0 W/m 25,7 km/h (4 Bft) 97,87 %
13.03.2022 21:16 12,9 C 12,2 C 7,8 C 68 % 1016,4 hPa 0,0 l/m 0 min 0 min 0 W/m 29,0 km/h (5 Bft) 97,87 %
13.03.2022 21:18 12,8 C 12,2 C 8,3 C 68 % 1016,3 hPa 0,0 l/m 0 min 0 min 0 W/m 29,0 km/h (5 Bft) 97,87 %
13.03.2022 21:20 12,8 C 12,2 C 7,8 C 68 % 1016,3 hPa 0,0 l/m 0 min 0 min 0 W/m 32,2 km/h (5 Bft) 95,74 %
13.03.2022 21:22 12,8 C 11,7 C 7,8 C 68 % 1016,3 hPa 0,0 l/m 0 min 0 min 0 W/m 32,2 km/h (5 Bft) 97,87 %
13.03.2022 21:24 12,8 C 11,7 C 7,8 C 69 % 1016,3 hPa 0,0 l/m 0 min 0 min 0 W/m 29,0 km/h (5 Bft) 97,83 %
13.03.2022 21:26 12,7 C 11,7 C 7,2 C 69 % 1016,4 hPa 0,0 l/m 0 min 0 min 0 W/m 32,2 km/h (5 Bft) 97,87 %
13.03.2022 21:28 12,7 C 11,7 C 7,2 C 70 % 1016,3 hPa 0,0 l/m 0 min 2 min 0 W/m 29,0 km/h (5 Bft) 97,87 %
13.03.2022 21:30 12,7 C 11,7 C 7,2 C 70 % 1016,4 hPa 0,0 l/m 0 min 0 min 0 W/m 25,7 km/h (4 Bft) 97,87 %
13.03.2022 21:32 12,6 C 11,7 C 7,2 C 70 % 1016,5 hPa 0,0 l/m 0 min 0 min 0 W/m 38,6 km/h (5 Bft) 100,00 %
13.03.2022 21:34 12,6 C 11,7 C 7,2 C 70 % 1016,5 hPa 0,0 l/m 0 min 0 min 0 W/m 19,3 km/h (3 Bft) 100,00 %
13.03.2022 21:36 12,5 C 11,7 C 7,2 C 70 % 1016,5 hPa 0,0 l/m 0 min 0 min 0 W/m 9,7 km/h (2 Bft) 100,00 %
13.03.2022 21:38 12,5 C 11,7 C 7,8 C 71 % 1016,5 hPa 0,0 l/m 0 min 0 min 0 W/m 16,1 km/h (3 Bft) 100,00 %
13.03.2022 21:40 12,4 C 11,7 C 7,8 C 71 % 1016,5 hPa 0,0 l/m 0 min 0 min 0 W/m 22,5 km/h (4 Bft) 100,00 %
13.03.2022 21:42 12,4 C 11,7 C 7,8 C 71 % 1016,5 hPa 0,0 l/m 0 min 0 min 0 W/m 12,9 km/h (3 Bft) 100,00 %
13.03.2022 21:44 12,4 C 11,7 C 7,8 C 71 % 1016,6 hPa 0,0 l/m 0 min 0 min 0 W/m 25,7 km/h (4 Bft) 100,00 %
13.03.2022 21:46 12,4 C 11,7 C 7,8 C 71 % 1016,6 hPa 0,0 l/m 0 min 0 min 0 W/m 25,7 km/h (4 Bft) 95,74 %
13.03.2022 21:48 12,3 C 11,7 C 7,8 C 71 % 1016,6 hPa 0,0 l/m 0 min 0 min 0 W/m 12,9 km/h (3 Bft) 100,00 %
13.03.2022 21:50 12,3 C 11,7 C 7,8 C 71 % 1016,7 hPa 0,0 l/m 0 min 0 min 0 W/m 19,3 km/h (3 Bft) 100,00 %
13.03.2022 21:52 12,3 C 11,7 C 7,8 C 71 % 1016,6 hPa 0,0 l/m 0 min 0 min 0 W/m 16,1 km/h (3 Bft) 100,00 %
13.03.2022 21:54 12,3 C 11,7 C 7,8 C 71 % 1016,6 hPa 0,0 l/m 0 min 0 min 0 W/m 16,1 km/h (3 Bft) 100,00 %
13.03.2022 21:56 12,3 C 11,7 C 7,8 C 71 % 1016,6 hPa 0,0 l/m 0 min 0 min 0 W/m 6,4 km/h (2 Bft) 97,87 %
13.03.2022 21:58 12,3 C 11,7 C 7,8 C 71 % 1016,6 hPa 0,0 l/m 0 min 0 min 0 W/m 16,1 km/h (3 Bft) 93,62 %
13.03.2022 22:00 12,3 C 11,1 C 7,8 C 71 % 1016,6 hPa 0,0 l/m 0 min 0 min 0 W/m 12,9 km/h (3 Bft) 97,83 %
13.03.2022 22:02 12,3 C 11,1 C 7,2 C 71 % 1016,6 hPa 0,0 l/m 0 min 0 min 0 W/m 6,4 km/h (2 Bft) 97,87 %
13.03.2022 22:04 12,2 C 11,1 C 7,2 C 71 % 1016,6 hPa 0,0 l/m 0 min 0 min 0 W/m 6,4 km/h (2 Bft) 52,27 %
13.03.2022 22:06 12,2 C 11,1 C 7,2 C 71 % 1016,7 hPa 0,0 l/m 0 min 0 min 0 W/m 3,2 km/h (1 Bft) 97,87 %
13.03.2022 22:08 12,2 C 11,1 C 7,2 C 72 % 1016,7 hPa 0,0 l/m 0 min 0 min 0 W/m 16,1 km/h (3 Bft) 97,87 %
13.03.2022 22:10 12,2 C 11,1 C 7,2 C 72 % 1016,7 hPa 0,0 l/m 0 min 0 min 0 W/m 16,1 km/h (3 Bft) 97,87 %
13.03.2022 22:12 12,2 C 11,1 C 7,2 C 72 % 1016,7 hPa 0,0 l/m 0 min 0 min 0 W/m 6,4 km/h (2 Bft) 95,65 %
13.03.2022 22:14 12,1 C 11,1 C 7,2 C 73 % 1016,7 hPa 0,0 l/m 0 min 0 min 0 W/m 12,9 km/h (3 Bft) 97,87 %
13.03.2022 22:16 12,1 C 11,1 C 7,2 C 73 % 1016,7 hPa 0,0 l/m 0 min 0 min 0 W/m 12,9 km/h (3 Bft) 97,87 %
13.03.2022 22:18 12,1 C 11,1 C 7,2 C 73 % 1016,7 hPa 0,0 l/m 0 min 0 min 0 W/m 12,9 km/h (3 Bft) 97,87 %
13.03.2022 22:20 12,1 C 11,1 C 7,2 C 73 % 1016,8 hPa 0,0 l/m 0 min 0 min 0 W/m 6,4 km/h (2 Bft) 97,87 %
13.03.2022 22:22 12,1 C 11,1 C 7,2 C 73 % 1016,8 hPa 0,0 l/m 0 min 0 min 0 W/m 6,4 km/h (2 Bft) 97,87 %
13.03.2022 22:24 12,1 C 11,1 C 7,2 C 73 % 1016,8 hPa 0,0 l/m 0 min 0 min 0 W/m 3,2 km/h (1 Bft) 97,83 %
13.03.2022 22:26 12,1 C 11,1 C 7,2 C 73 % 1016,9 hPa 0,0 l/m 0 min 0 min 0 W/m 3,2 km/h (1 Bft) 93,62 %
13.03.2022 22:28 12,1 C 11,1 C 7,2 C 73 % 1016,9 hPa 0,0 l/m 0 min 0 min 0 W/m 3,2 km/h (1 Bft) 95,74 %
13.03.2022 22:30 12,0 C 11,1 C 7,2 C 73 % 1016,9 hPa 0,0 l/m 0 min 0 min 0 W/m 6,4 km/h (2 Bft) 93,62 %
13.03.2022 22:32 12,0 C 11,1 C 7,2 C 73 % 1016,8 hPa 0,0 l/m 0 min 0 min 0 W/m 6,4 km/h (2 Bft) 95,74 %
13.03.2022 22:34 11,9 C 11,1 C 7,2 C 73 % 1016,8 hPa 0,0 l/m 0 min 0 min 0 W/m 6,4 km/h (2 Bft) 95,74 %
13.03.2022 22:36 11,9 C 11,1 C 7,2 C 73 % 1016,8 hPa 0,0 l/m 0 min 0 min 0 W/m 6,4 km/h (2 Bft) 95,65 %
13.03.2022 22:38 11,9 C 11,1 C 7,2 C 73 % 1016,9 hPa 0,0 l/m 0 min 0 min 0 W/m 6,4 km/h (2 Bft) 95,74 %
13.03.2022 22:40 11,9 C 11,1 C 7,2 C 73 % 1016,9 hPa 0,0 l/m 0 min 0 min 0 W/m 9,7 km/h (2 Bft) 95,74 %
13.03.2022 22:42 11,9 C 11,1 C 7,2 C 73 % 1016,9 hPa 0,0 l/m 0 min 0 min 0 W/m 9,7 km/h (2 Bft) 95,74 %
13.03.2022 22:44 11,9 C 11,1 C 7,2 C 73 % 1016,9 hPa 0,0 l/m 0 min 0 min 0 W/m 6,4 km/h (2 Bft) 97,87 %
13.03.2022 22:46 11,8 C 11,1 C 7,2 C 74 % 1017,0 hPa 0,0 l/m 0 min 0 min 0 W/m 6,4 km/h (2 Bft) 95,74 %
13.03.2022 22:48 11,8 C 11,1 C 7,2 C 74 % 1017,1 hPa 0,0 l/m 0 min 0 min 0 W/m 6,4 km/h (2 Bft) 97,83 %
13.03.2022 22:50 11,8 C 11,1 C 7,2 C 74 % 1017,1 hPa 0,0 l/m 0 min 0 min 0 W/m 6,4 km/h (2 Bft) 97,87 %
13.03.2022 22:52 11,8 C 11,1 C 7,2 C 74 % 1017,1 hPa 0,0 l/m 0 min 0 min 0 W/m 6,4 km/h (2 Bft) 97,87 %
13.03.2022 22:54 11,8 C 11,1 C 7,2 C 74 % 1017,1 hPa 0,0 l/m 0 min 0 min 0 W/m 9,7 km/h (2 Bft) 95,74 %
13.03.2022 22:56 11,8 C 11,1 C 7,2 C 74 % 1017,2 hPa 0,0 l/m 0 min 0 min 0 W/m 6,4 km/h (2 Bft) 93,62 %
13.03.2022 22:58 11,8 C 11,1 C 7,2 C 74 % 1017,2 hPa 0,0 l/m 0 min 0 min 0 W/m 6,4 km/h (2 Bft) 95,74 %
13.03.2022 23:00 11,8 C 11,1 C 7,2 C 74 % 1017,2 hPa 0,0 l/m 0 min 0 min 0 W/m 6,4 km/h (2 Bft) 95,65 %
13.03.2022 23:02 11,7 C 11,1 C 7,2 C 74 % 1017,3 hPa 0,0 l/m 0 min 0 min 0 W/m 9,7 km/h (2 Bft) 95,74 %
13.03.2022 23:04 11,7 C 11,1 C 7,2 C 74 % 1017,2 hPa 0,0 l/m 0 min 0 min 0 W/m 9,7 km/h (2 Bft) 93,62 %
13.03.2022 23:06 11,7 C 11,1 C 7,2 C 74 % 1017,2 hPa 0,0 l/m 0 min 0 min 0 W/m 6,4 km/h (2 Bft) 95,74 %
13.03.2022 23:08 11,7 C 10,6 C 7,2 C 74 % 1017,2 hPa 0,0 l/m 0 min 0 min 0 W/m 3,2 km/h (1 Bft) 97,87 %
13.03.2022 23:10 11,7 C 10,6 C 7,2 C 74 % 1017,2 hPa 0,0 l/m 0 min 0 min 0 W/m 3,2 km/h (1 Bft) 95,74 %
13.03.2022 23:12 11,7 C 10,6 C 7,2 C 74 % 1017,2 hPa 0,0 l/m 0 min 0 min 0 W/m 3,2 km/h (1 Bft) 95,65 %
13.03.2022 23:14 11,7 C 10,6 C 7,2 C 74 % 1017,2 hPa 0,0 l/m 0 min 0 min 0 W/m 3,2 km/h (1 Bft) 95,74 %
13.03.2022 23:16 11,7 C 10,6 C 7,2 C 74 % 1017,2 hPa 0,0 l/m 0 min 0 min 0 W/m 3,2 km/h (1 Bft) 95,74 %
13.03.2022 23:18 11,7 C 10,6 C 7,2 C 74 % 1017,2 hPa 0,0 l/m 0 min 0 min 0 W/m 3,2 km/h (1 Bft) 97,87 %
13.03.2022 23:20 11,7 C 10,6 C 7,2 C 74 % 1017,2 hPa 0,0 l/m 0 min 0 min 0 W/m 3,2 km/h (1 Bft) 97,87 %
13.03.2022 23:22 11,7 C 10,6 C 7,2 C 74 % 1017,2 hPa 0,0 l/m 0 min 0 min 0 W/m 3,2 km/h (1 Bft) 95,65 %
13.03.2022 23:24 11,6 C 10,6 C 7,2 C 74 % 1017,2 hPa 0,0 l/m 0 min 0 min 0 W/m 3,2 km/h (1 Bft) 95,74 %
13.03.2022 23:26 11,6 C 10,6 C 6,7 C 74 % 1017,2 hPa 0,0 l/m 0 min 0 min 0 W/m 3,2 km/h (1 Bft) 100,00 %
13.03.2022 23:28 11,6 C 10,6 C 6,7 C 74 % 1017,3 hPa 0,0 l/m 0 min 0 min 0 W/m 3,2 km/h (1 Bft) 100,00 %
13.03.2022 23:30 11,6 C 10,6 C 6,7 C 74 % 1017,3 hPa 0,0 l/m 0 min 0 min 0 W/m 3,2 km/h (1 Bft) 100,00 %
13.03.2022 23:32 11,6 C 10,6 C 6,7 C 74 % 1017,3 hPa 0,0 l/m 0 min 0 min 0 W/m 3,2 km/h (1 Bft) 100,00 %
13.03.2022 23:34 11,6 C 10,6 C 6,7 C 75 % 1017,3 hPa 0,0 l/m 0 min 0 min 0 W/m 6,4 km/h (2 Bft) 100,00 %
13.03.2022 23:36 11,5 C 10,6 C 6,7 C 75 % 1017,4 hPa 0,0 l/m 0 min 0 min 0 W/m 6,4 km/h (2 Bft) 100,00 %
13.03.2022 23:38 11,5 C 10,6 C 6,7 C 75 % 1017,4 hPa 0,0 l/m 0 min 0 min 0 W/m 3,2 km/h (1 Bft) 100,00 %
13.03.2022 23:40 11,4 C 10,6 C 6,7 C 75 % 1017,4 hPa 0,0 l/m 0 min 0 min 0 W/m 6,4 km/h (2 Bft) 100,00 %
13.03.2022 23:42 11,4 C 10,6 C 6,7 C 75 % 1017,4 hPa 0,0 l/m 0 min 0 min 0 W/m 6,4 km/h (2 Bft) 100,00 %
13.03.2022 23:44 11,4 C 10,6 C 6,7 C 75 % 1017,4 hPa 0,0 l/m 0 min 0 min 0 W/m 3,2 km/h (1 Bft) 100,00 %
13.03.2022 23:46 11,4 C 10,0 C 6,7 C 75 % 1017,5 hPa 0,0 l/m 0 min 0 min 0 W/m 0,0 km/h (0 Bft) 100,00 %
13.03.2022 23:48 11,4 C 10,0 C 6,7 C 75 % 1017,5 hPa 0,0 l/m 0 min 0 min 0 W/m 3,2 km/h (1 Bft) 97,87 %
13.03.2022 23:50 11,3 C 10,0 C 6,7 C 75 % 1017,5 hPa 0,0 l/m 0 min 0 min 0 W/m 6,4 km/h (2 Bft) 100,00 %
13.03.2022 23:52 11,3 C 10,0 C 6,7 C 75 % 1017,5 hPa 0,0 l/m 0 min 0 min 0 W/m 3,2 km/h (1 Bft) 97,87 %
13.03.2022 23:54 11,3 C 10,0 C 6,7 C 75 % 1017,6 hPa 0,0 l/m 0 min 0 min 0 W/m 3,2 km/h (1 Bft) 100,00 %
13.03.2022 23:56 11,3 C 10,0 C 6,7 C 75 % 1017,6 hPa 0,0 l/m 0 min 0 min 0 W/m 3,2 km/h (1 Bft) 100,00 %
13.03.2022 23:58 11,3 C 10,0 C 6,1 C 75 % 1017,6 hPa 0,0 l/m 0 min 0 min 0 W/m 6,4 km/h (2 Bft) 97,83 %
_ Min-Zeit 04:38 03:56 03:48 10:56 16:18 - - - - 23:46 10:44
Minimum _ 6,8 C 6,1 C 2,8 C 46 % 1012,8 hPa - - - - 0,0 km/h (0 Bft) 47,37 %
_ Max-Zeit 15:00 13:14 11:34 23:34 23:54 00:00 12:08 21:28 12:34 21:10 00:44
Maximum _ 18,3 C 23,3 C 15,6 C 75 % 1017,6 hPa 0,0 l/m 4 min 2 min 656 W/m 51,5 km/h
S (7 Bft)
100,00 %
Durchschnitt _ 11,8 C 12,2 C 7,7 C 58 % 1015,0 hPa #0,0 l/m #6:42 h #2 min. 308 W/m 16,4 km/h (3 Bft) 97,39 %
© 2022 W. Hausmann